FW4770 Weather Reports


time (UTC)temp
F
wind
direction
speed
knots
gust
knots
rain 1hr
in
rain 24hr
in
rain mn
in
humidity
%
barometer
mb
20260506002330 48 346 7.0 12.2 0.00 0.00 0.00 49 1011.5
20260506002208 48 13 7.0 12.2 0.00 0.00 0.00 49 1011.5
20260506002112 48 334 7.8 12.2 0.00 0.00 0.00 49 1011.4
20260506002016 48 348 7.0 12.2 0.00 0.00 0.00 49 1011.4
20260506001925 48 34 6.1 12.2 0.00 0.00 0.00 49 1011.4
20260506001809 48 49 6.1 11.3 0.00 0.00 0.00 49 1011.4
20260506001712 48 44 6.1 11.3 0.00 0.00 0.00 48 1011.4
20260506001637 48 328 7.0 11.3 0.00 0.00 0.00 49 1011.4
20260506001519 48 15 7.0 11.3 0.00 0.00 0.00 49 1011.4
20260506001423 48 355 7.0 11.3 0.00 0.00 0.00 48 1011.4
20260506001311 48 360 6.1 11.3 0.00 0.00 0.00 48 1011.4
20260506001215 48 5 7.0 11.3 0.00 0.00 0.00 48 1011.5
20260506001120 48 10 7.8 11.3 0.00 0.00 0.00 48 1011.4
20260506001005 48 323 5.2 11.3 0.00 0.00 0.00 48 1011.4
20260506000910 48 347 4.3 11.3 0.00 0.00 0.00 49 1011.3
20260506000815 48 27 4.3 11.3 0.00 0.00 0.00 48 1011.4
20260506000722 48 355 4.3 11.3 0.00 0.00 0.00 48 1011.4
20260506000607 48 350 6.1 12.2 0.00 0.00 0.00 48 1011.3
20260506000511 48 355 7.0 12.2 0.00 0.00 0.00 47 1011.4
20260506000416 48 294 7.0 13.0 0.00 0.00 0.00 48 1011.4
20260506000320 48 5 6.1 13.0 0.00 0.00 0.00 48 1011.4
20260506000223 48 355 6.1 13.0 0.00 0.00 0.00 46 1011.3
20260506000110 49 338 7.8 13.0 0.00 0.00 0.00 47 1011.4
20260506000015 49 333 7.8 13.9 0.00 0.00 0.00 47 1011.3
20260505235939 49 9 8.7 13.9 0.00 0.00 0.00 47 1011.3
20260505235824 49 355 8.7 13.9 0.00 0.00 0.00 47 1011.3
20260505235709 49 349 8.7 13.9 0.00 0.00 0.00 46 1011.3
20260505235614 49 5 8.7 13.9 0.00 0.00 0.00 46 1011.3
20260505235520 49 329 7.0 13.9 0.00 0.00 0.00 47 1011.3
20260505235409 49 355 7.0 13.9 0.00 0.00 0.00 47 1011.3
20260505235313 49 321 9.6 13.9 0.00 0.00 0.00 47 1011.3
20260505235218 49 350 11.3 14.8 0.00 0.00 0.00 46 1011.3
20260505235122 49 355 9.6 14.8 0.00 0.00 0.00 47 1011.3
20260505235026 49 338 7.8 14.8 0.00 0.00 0.00 47 1011.3
20260505234928 49 332 8.7 14.8 0.00 0.00 0.00 46 1011.2
20260505234815 49 344 8.7 14.8 0.00 0.00 0.00 47 1011.2
20260505234717 49 9 7.8 14.8 0.00 0.00 0.00 47 1011.2
20260505234622 49 347 7.0 14.8 0.00 0.00 0.00 47 1011.2
20260505234507 49 360 8.7 14.8 0.00 0.00 0.00 45 1011.2
20260505234431 49 350 9.6 14.8 0.00 0.00 0.00 45 1011.2
20260505234307 49 349 8.7 12.2 0.00 0.00 0.00 45 1011.2
20260505234216 49 19 7.0 12.2 0.00 0.00 0.00 45 1011.2
20260505234120 49 5 6.1 11.3 0.00 0.00 0.00 45 1011.2
20260505234024 49 348 5.2 11.3 0.00 0.00 0.00 46 1011.2
20260505233908 50 360 6.1 14.8 0.00 0.00 0.00 46 1011.2
20260505233813 50 344 7.0 14.8 0.00 0.00 0.00 45 1011.1
20260505233716 50 309 7.0 14.8 0.00 0.00 0.00 45 1011.1
20260505233624 50 336 7.0 14.8 0.00 0.00 0.00 45 1011.2
20260505233526 50 317 7.0 14.8 0.00 0.00 0.00 44 1011.1
20260505233409 50 329 6.1 14.8 0.00 0.00 0.00 45 1011.1
20260505233312 50 304 7.8 14.8 0.00 0.00 0.00 44 1011.2
20260505233216 50 338 8.7 14.8 0.00 0.00 0.00 43 1011.1
20260505233118 50 333 8.7 13.0 0.00 0.00 0.00 44 1011.1
20260505233007 51 355 7.8 13.0 0.00 0.00 0.00 45 1011.1
20260505232929 51 302 7.8 17.4 0.00 0.00 0.00 45 1011.1
20260505232805 51 338 7.0 17.4 0.00 0.00 0.00 45 1011.1
20260505232709 51 306 6.1 17.4 0.00 0.00 0.00 45 1011.1
20260505232613 51 315 6.1 17.4 0.00 0.00 0.00 44 1011.1
20260505232515 51 331 7.0 17.4 0.00 0.00 0.00 43 1011.1
20260505232418 50 348 7.0 17.4 0.00 0.00 0.00 43 1011.0
20260505232326 51 349 7.8 17.4 0.00 0.00 0.00 43 1011.1
20260505232228 51 19 10.4 17.4 0.00 0.00 0.00 43 1011.1
20260505232109 51 351 10.4 17.4 0.00 0.00 0.00 43 1011.1
20260505232012 51 355 9.6 14.8 0.00 0.00 0.00 43 1011.0
20260505231916 51 343 9.6 14.8 0.00 0.00 0.00 44 1011.0
20260505231818 51 337 9.6 14.8 0.00 0.00 0.00 43 1011.0
20260505231742 51 345 7.8 12.2 0.00 0.00 0.00 43 1011.1
20260505231628 51 355 8.7 12.2 0.00 0.00 0.00 43 1011.0
20260505231506 51 327 7.0 12.2 0.00 0.00 0.00 44 1011.0
20260505231429 51 355 7.0 12.2 0.00 0.00 0.00 44 1011.0
20260505231311 51 351 7.8 12.2 0.00 0.00 0.00 44 1011.0
20260505231214 51 38 7.8 12.2 0.00 0.00 0.00 45 1011.0
20260505231117 51 10 7.0 12.2 0.00 0.00 0.00 45 1011.0
20260505231021 50 339 7.0 12.2 0.00 0.00 0.00 44 1011.0
20260505230907 50 23 7.0 13.0 0.00 0.00 0.00 45 1010.9
20260505230811 50 336 7.8 13.0 0.00 0.00 0.00 45 1011.0
20260505230713 50 312 7.8 13.0 0.00 0.00 0.00 45 1010.9
20260505230617 50 18 6.1 13.0 0.00 0.00 0.00 45 1010.9
20260505230520 50 297 4.3 13.0 0.00 0.00 0.00 46 1010.9
20260505230406 50 344 5.2 13.0 0.00 0.00 0.00 45 1011.0
20260505230330 50 355 7.8 13.0 0.00 0.00 0.00 45 1011.0
20260505230206 50 328 9.6 13.9 0.00 0.00 0.00 43 1011.1
20260505230109 50 355 8.7 13.9 0.00 0.00 0.00 43 1011.0
20260505230013 50 355 9.6 13.9 0.00 0.00 0.00 44 1011.0
20260505225936 50 5 9.6 13.9 0.00 0.00 0.00 44 1011.1
20260505225819 50 342 8.7 13.9 0.00 0.00 0.00 45 1011.0
20260505225705 50 360 7.8 13.9 0.00 0.00 0.00 45 1011.1
20260505225609 50 360 8.7 13.9 0.00 0.00 0.00 45 1011.0
20260505225511 50 328 9.6 13.9 0.00 0.00 0.00 45 1011.0
20260505225414 49 355 9.6 13.9 0.00 0.00 0.00 46 1011.1
20260505225318 49 355 9.6 13.0 0.00 0.00 0.00 47 1011.0
20260505225220 49 360 7.8 12.2 0.00 0.00 0.00 46 1010.9
20260505225128 49 332 5.2 11.3 0.00 0.00 0.00 48 1011.0
20260505225031 49 325 5.2 11.3 0.00 0.00 0.00 47 1011.1
20260505224906 48 321 6.1 11.3 0.00 0.00 0.00 47 1011.0
20260505224830 48 355 6.1 12.2 0.00 0.00 0.00 47 1011.0
20260505224711 48 355 6.1 12.2 0.00 0.00 0.00 47 1011.0
20260505224614 48 338 6.1 12.2 0.00 0.00 0.00 47 1011.0
20260505224537 48 319 5.2 12.2 0.00 0.00 0.00 47 1011.1
20260505224419 48 342 6.1 12.2 0.00 0.00 0.00 48 1010.9
20260505224327 48 342 7.0 12.2 0.00 0.00 0.00 47 1011.0
20260505224209 48 336 7.8 12.2 0.00 0.00 0.00 46 1011.0
20260505224112 48 339 8.7 12.2 0.00 0.00 0.00 46 1010.9
20260505224015 48 12 7.8 13.9 0.00 0.00 0.00 48 1011.0
20260505223939 49 328 6.1 13.9 0.00 0.00 0.00 47 1011.0
20260505223821 49 318 4.3 13.9 0.00 0.00 0.00 47 1011.1
20260505223744 48 287 5.2 13.9 0.00 0.00 0.00 47 1011.0
20260505223631 48 333 7.0 13.9 0.00 0.00 0.00 46 1010.9
20260505223507 48 10 8.7 13.9 0.00 0.00 0.00 46 1011.0
20260505223411 48 355 7.8 13.9 0.00 0.00 0.00 46 1011.0
20260505223334 48 12 8.7 13.9 0.00 0.00 0.00 47 1011.1
20260505223217 48 5 7.8 13.9 0.00 0.00 0.00 47 1011.0
20260505223119 48 329 7.0 13.9 0.00 0.00 0.00 48 1011.0
20260505223006 48 13 7.8 13.0 0.00 0.00 0.00 46 1011.0
20260505222929 48 336 7.8 13.0 0.00 0.00 0.00 46 1010.9
20260505222852 48 5 7.0 13.0 0.00 0.00 0.00 46 1011.0
20260505222707 48 343 7.8 13.0 0.00 0.00 0.00 46 1011.0
20260505222630 48 346 8.7 13.0 0.00 0.00 0.00 46 1011.0
20260505222506 48 342 6.1 13.0 0.00 0.00 0.00 48 1011.0
20260505222409 48 336 7.0 13.0 0.00 0.00 0.00 46 1011.0
20260505222316 48 327 8.7 13.0 0.00 0.00 0.00 46 1011.0
20260505222219 48 336 8.7 13.9 0.00 0.00 0.00 46 1011.0
20260505222122 48 342 8.7 13.9 0.00 0.00 0.00 46 1010.9
20260505222006 48 350 8.7 13.9 0.00 0.00 0.00 46 1011.0
20260505221929 48 336 8.7 13.9 0.00 0.00 0.00 46 1011.1
20260505221806 48 5 7.8 13.9 0.00 0.00 0.00 47 1011.0
20260505221713 48 5 7.0 13.9 0.00 0.00 0.00 47 1011.0
20260505221616 48 5 7.0 13.9 0.00 0.00 0.00 47 1011.1
20260505221520 48 15 7.8 14.8 0.00 0.00 0.00 47 1011.1
20260505221445 48 294 8.7 14.8 0.00 0.00 0.00 46 1011.1
20260505221326 48 311 7.0 14.8 0.00 0.00 0.00 47 1011.1
20260505221209 48 343 7.8 14.8 0.00 0.00 0.00 47 1011.1
20260505221113 48 343 8.7 14.8 0.00 0.00 0.00 46 1011.1
20260505221020 48 323 7.8 14.8 0.00 0.00 0.00 46 1011.0
20260505220923 48 328 6.1 14.8 0.00 0.00 0.00 48 1011.1
20260505220826 48 326 7.8 14.8 0.00 0.00 0.00 46 1011.0
20260505220708 48 327 9.6 14.8 0.00 0.00 0.00 46 1011.1
20260505220611 48 338 8.7 16.5 0.00 0.00 0.00 47 1011.0
20260505220514 48 355 9.6 16.5 0.00 0.00 0.00 47 1011.2
20260505220418 48 304 8.7 16.5 0.00 0.00 0.00 47 1011.1
20260505220305 48 351 7.0 16.5 0.00 0.00 0.00 47 1011.2
20260505220228 49 350 7.0 16.5 0.00 0.00 0.00 47 1011.1
20260505220105 49 349 10.4 16.5 0.00 0.00 0.00 46 1011.2
20260505220009 49 308 12.2 16.5 0.00 0.00 0.00 46 1011.2
20260505215913 49 306 9.6 16.5 0.00 0.00 0.00 46 1011.1
20260505215818 49 338 7.0 13.9 0.00 0.00 0.00 46 1011.1
20260505215745 49 5 7.0 13.9 0.00 0.00 0.00 46 1011.2
20260505215608 49 315 9.6 13.9 0.00 0.00 0.00 47 1011.2
20260505215531 49 360 9.6 13.9 0.00 0.00 0.00 47 1011.1
20260505215431 49 323 9.6 13.9 0.00 0.00 0.00 47 1011.1
20260505215313 49 350 7.0 13.0 0.00 0.00 0.00 46 1011.2
20260505215237 49 326 6.1 12.2 0.00 0.00 0.00 48 1011.1
20260505215141 49 322 6.1 12.2 0.00 0.00 0.00 47 1011.1
20260505215024 49 323 6.1 12.2 0.00 0.00 0.00 48 1011.2
20260505214913 49 337 6.1 13.0 0.00 0.00 0.00 47 1011.2
20260505214837 49 339 6.1 14.8 0.00 0.00 0.00 47 1011.2
20260505214720 49 342 6.1 14.8 0.00 0.00 0.00 49 1011.2
20260505214606 49 293 5.2 14.8 0.00 0.00 0.00 48 1011.2
20260505214530 49 281 5.2 14.8 0.00 0.00 0.00 47 1011.2
20260505214406 49 315 7.0 14.8 0.00 0.00 0.00 47 1011.2
20260505214331 49 339 8.7 16.5 0.00 0.00 0.00 46 1011.2
20260505214239 49 319 9.6 16.5 0.00 0.00 0.00 46 1011.2
20260505214121 49 343 10.4 16.5 0.00 0.00 0.00 45 1011.2
20260505214026 49 342 8.7 16.5 0.00 0.00 0.00 47 1011.1
20260505213908 49 297 7.8 16.5 0.00 0.00 0.00 47 1011.2
20260505213833 49 336 9.6 16.5 0.00 0.00 0.00 47 1011.2
20260505213716 49 335 9.6 16.5 0.00 0.00 0.00 46 1011.2
20260505213620 49 328 11.3 16.5 0.00 0.00 0.00 47 1011.2
20260505213510 49 303 8.7 16.5 0.00 0.00 0.00 47 1011.2
20260505213414 49 314 8.7 16.5 0.00 0.00 0.00 46 1011.2
20260505213318 49 343 10.4 16.5 0.00 0.00 0.00 46 1011.1
20260505213224 49 11 9.6 16.5 0.00 0.00 0.00 45 1011.2
20260505213128 49 355 7.0 13.9 0.00 0.00 0.00 47 1011.2
20260505213011 49 288 7.8 13.9 0.00 0.00 0.00 47 1011.3
20260505212920 49 344 7.8 13.9 0.00 0.00 0.00 46 1011.3
20260505212824 49 15 7.0 13.9 0.00 0.00 0.00 47 1011.2
20260505212728 49 285 8.7 13.9 0.00 0.00 0.00 46 1011.2
20260505212605 49 340 8.7 13.9 0.00 0.00 0.00 49 1011.3
20260505212530 49 329 6.1 13.0 0.00 0.00 0.00 49 1011.2
20260505212413 49 5 6.1 13.0 0.00 0.00 0.00 48 1011.2
20260505212318 49 355 7.0 13.0 0.00 0.00 0.00 48 1011.3
20260505212206 49 327 7.0 13.0 0.00 0.00 0.00 49 1011.2
20260505212131 49 302 6.1 13.0 0.00 0.00 0.00 49 1011.2
20260505212007 49 350 4.3 13.0 0.00 0.00 0.00 47 1011.1
20260505211911 49 315 7.0 13.0 0.00 0.00 0.00 47 1011.2
20260505211816 49 330 8.7 13.0 0.00 0.00 0.00 46 1011.2
20260505211704 49 313 8.7 13.9 0.00 0.00 0.00 48 1011.1
20260505211628 49 329 7.8 13.9 0.00 0.00 0.00 48 1011.1
20260505211505 49 316 6.1 13.9 0.00 0.00 0.00 48 1011.3
20260505211411 49 317 6.1 13.9 0.00 0.00 0.00 46 1011.3
20260505211335 49 341 7.0 13.9 0.00 0.00 0.00 46 1011.2
20260505211216 49 313 6.1 13.9 0.00 0.00 0.00 46 1011.3
20260505211121 49 344 6.1 13.9 0.00 0.00 0.00 47 1011.2
20260505211011 50 349 7.8 13.9 0.00 0.00 0.00 47 1011.3
20260505210915 50 355 7.8 13.9 0.00 0.00 0.00 46 1011.3
20260505210819 50 317 7.0 14.8 0.00 0.00 0.00 47 1011.3
20260505210724 50 325 5.2 14.8 0.00 0.00 0.00 46 1011.3
20260505210608 50 324 6.1 14.8 0.00 0.00 0.00 47 1011.3
20260505210510 50 330 6.1 14.8 0.00 0.00 0.00 46 1011.3
20260505210419 50 17 6.1 14.8 0.00 0.00 0.00 45 1011.4
20260505210323 50 13 6.1 14.8 0.00 0.00 0.00 47 1011.3
20260505210227 50 12 8.7 15.6 0.00 0.00 0.00 46 1011.3
20260505210110 50 344 9.6 15.6 0.00 0.00 0.00 45 1011.3
20260505210015 50 335 9.6 15.6 0.00 0.00 0.00 47 1011.3
20260505205918 50 306 9.6 15.6 0.00 0.00 0.00 46 1011.3
20260505205807 50 355 7.8 15.6 0.00 0.00 0.00 45 1011.4
20260505205712 50 332 7.8 15.6 0.00 0.00 0.00 46 1011.3
20260505205615 50 355 9.6 15.6 0.00 0.00 0.00 47 1011.3
20260505205541 50 333 9.6 15.6 0.00 0.00 0.00 46 1011.3
20260505205442 50 338 9.6 15.6 0.00 0.00 0.00 47 1011.2
20260505205326 50 321 9.6 14.8 0.00 0.00 0.00 47 1011.3
20260505205210 50 344 9.6 14.8 0.00 0.00 0.00 46 1011.2
20260505205118 50 323 7.8 14.8 0.00 0.00 0.00 45 1011.3
20260505205023 50 13 7.0 14.8 0.00 0.00 0.00 46 1011.3
20260505204906 50 5 7.8 14.8 0.00 0.00 0.00 46 1011.3
20260505204830 50 9 8.7 14.8 0.00 0.00 0.00 47 1011.3
20260505204707 50 335 8.7 14.8 0.00 0.00 0.00 46 1011.3
20260505204611 49 21 7.8 14.8 0.00 0.00 0.00 47 1011.3
20260505204518 49 344 7.8 14.8 0.00 0.00 0.00 46 1011.2
20260505204423 50 324 7.8 14.8 0.00 0.00 0.00 47 1011.3
20260505204308 49 19 7.0 17.4 0.00 0.00 0.00 46 1011.3
20260505204211 49 350 7.8 17.4 0.00 0.00 0.00 46 1011.3
20260505204115 49 338 9.6 17.4 0.00 0.00 0.00 46 1011.4
20260505204020 49 5 8.7 17.4 0.00 0.00 0.00 46 1011.5
20260505203930 49 321 5.2 17.4 0.00 0.00 0.00 48 1011.4
20260505203806 49 355 7.0 17.4 0.00 0.00 0.00 46 1011.4
20260505203730 49 355 8.7 17.4 0.00 0.00 0.00 46 1011.3
20260505203607 49 355 12.2 17.4 0.00 0.00 0.00 44 1011.3
20260505203512 50 333 12.2 17.4 0.00 0.00 0.00 45 1011.4
20260505203436 50 355 9.6 14.8 0.00 0.00 0.00 46 1011.3
20260505203319 50 338 9.6 14.8 0.00 0.00 0.00 47 1011.2
20260505203228 50 355 9.6 14.8 0.00 0.00 0.00 47 1011.3
20260505203105 50 290 9.6 14.8 0.00 0.00 0.00 49 1011.3
20260505203009 50 301 10.4 14.8 0.00 0.00 0.00 47 1011.3
20260505202913 50 302 9.6 14.8 0.00 0.00 0.00 48 1011.3
20260505202817 50 300 9.6 13.0 0.00 0.00 0.00 48 1011.3
20260505202704 50 11 8.7 14.8 0.00 0.00 0.00 46 1011.4
20260505202609 50 346 7.0 14.8 0.00 0.00 0.00 49 1011.4
20260505202513 50 317 6.1 14.8 0.00 0.00 0.00 48 1011.5
20260505202418 50 333 7.0 14.8 0.00 0.00 0.00 47 1011.4
20260505202322 50 336 7.0 14.8 0.00 0.00 0.00 47 1011.4
20260505202226 50 5 7.0 14.8 0.00 0.00 0.00 46 1011.4
20260505202108 50 344 7.8 17.4 0.00 0.00 0.00 45 1011.5
20260505202017 50 360 9.6 17.4 0.00 0.00 0.00 45 1011.4
20260505201942 51 323 8.7 17.4 0.00 0.00 0.00 46 1011.3
20260505201807 51 319 7.8 17.4 0.00 0.00 0.00 46 1011.5
20260505201710 51 347 7.8 17.4 0.00 0.00 0.00 45 1011.4
20260505201614 51 9 7.0 17.4 0.00 0.00 0.00 46 1011.4
20260505201519 51 33 9.6 17.4 0.00 0.00 0.00 49 1011.5
20260505201407 51 317 9.6 17.4 0.00 0.00 0.00 46 1011.3
20260505201311 50 292 7.8 17.4 0.00 0.00 0.00 52 1011.4
20260505201216 50 291 7.0 15.6 0.00 0.00 0.00 47 1011.4
20260505201141 50 312 6.1 15.6 0.00 0.00 0.00 48 1011.4
20260505201023 50 328 5.2 16.5 0.00 0.00 0.00 47 1011.4
20260505200927 50 300 8.7 16.5 0.00 0.00 0.00 46 1011.6
20260505200829 50 323 8.7 16.5 0.00 0.00 0.00 45 1011.5
20260505200717 50 320 7.0 16.5 0.00 0.00 0.00 48 1011.4
20260505200619 50 340 5.2 16.5 0.00 0.00 0.00 47 1011.6
20260505200504 50 351 6.1 16.5 0.00 0.00 0.00 47 1011.3
20260505200408 50 348 8.7 16.5 0.00 0.00 0.00 46 1011.4
20260505200312 50 355 8.7 16.5 0.00 0.00 0.00 46 1011.4
20260505200217 50 328 7.0 16.5 0.00 0.00 0.00 47 1011.4
20260505200128 50 11 6.1 13.0 0.00 0.00 0.00 48 1011.5
20260505200030 50 355 6.1 13.0 0.00 0.00 0.00 47 1011.4
20260505195914 50 343 6.1 14.8 0.00 0.00 0.00 47 1011.4
20260505195819 50 296 7.0 14.8 0.00 0.00 0.00 45 1011.3
20260505195723 50 355 7.8 14.8 0.00 0.00 0.00 46 1011.4
20260505195628 50 360 7.8 14.8 0.00 0.00 0.00 47 1011.4
20260505195505 50 34 6.1 14.8 0.00 0.00 0.00 49 1011.4
20260505195413 49 325 6.1 14.8 0.00 0.00 0.00 47 1011.3
20260505195318 49 347 7.8 14.8 0.00 0.00 0.00 47 1011.4
20260505195223 49 347 8.7 14.8 0.00 0.00 0.00 46 1011.4
20260505195108 49 303 7.8 13.9 0.00 0.00 0.00 47 1011.4
20260505195012 49 325 9.6 13.9 0.00 0.00 0.00 47 1011.4
20260505194916 49 324 7.8 13.9 0.00 0.00 0.00 47 1011.4
20260505194805 49 360 7.0 13.9 0.00 0.00 0.00 49 1011.4
20260505194709 49 355 7.0 13.9 0.00 0.00 0.00 47 1011.4
20260505194614 49 27 6.1 13.9 0.00 0.00 0.00 47 1011.3
20260505194519 48 17 6.1 13.9 0.00 0.00 0.00 47 1011.4
20260505194423 48 355 7.8 13.9 0.00 0.00 0.00 47 1011.4
20260505194312 48 329 7.8 17.4 0.00 0.00 0.00 47 1011.3
20260505194214 48 319 7.0 17.4 0.00 0.00 0.00 48 1011.4
20260505194120 48 315 7.0 17.4 0.00 0.00 0.00 46 1011.4
20260505194024 48 308 7.8 17.4 0.00 0.00 0.00 46 1011.3
20260505193928 49 298 8.7 17.4 0.00 0.00 0.00 45 1011.2
20260505193811 49 342 8.7 17.4 0.00 0.00 0.00 47 1011.4
20260505193735 49 339 8.7 17.4 0.00 0.00 0.00 47 1011.4
20260505193623 48 9 10.4 17.4 0.00 0.00 0.00 46 1011.4
20260505193508 49 327 9.6 17.4 0.00 0.00 0.00 46 1011.3
20260505193412 49 333 6.1 17.4 0.00 0.00 0.00 49 1011.4
20260505193316 49 325 4.3 16.5 0.00 0.00 0.00 48 1011.3
20260505193221 49 342 5.2 16.5 0.00 0.00 0.00 47 1011.3
20260505193106 49 15 8.7 16.5 0.00 0.00 0.00 45 1011.4
20260505193014 49 355 9.6 16.5 0.00 0.00 0.00 45 1011.3
20260505192918 49 13 9.6 16.5 0.00 0.00 0.00 47 1011.4
20260505192821 49 355 7.8 16.5 0.00 0.00 0.00 45 1011.4
20260505192706 49 309 9.6 16.5 0.00 0.00 0.00 46 1011.3
20260505192630 49 360 9.6 16.5 0.00 0.00 0.00 45 1011.4
20260505192507 49 344 10.4 16.5 0.00 0.00 0.00 44 1011.4
20260505192415 49 5 8.7 13.9 0.00 0.00 0.00 45 1011.4
20260505192339 49 351 7.8 13.0 0.00 0.00 0.00 46 1011.4
20260505192222 49 336 7.8 13.0 0.00 0.00 0.00 46 1011.4
20260505192126 49 16 7.0 13.0 0.00 0.00 0.00 47 1011.4
20260505192010 49 355 7.0 13.0 0.00 0.00 0.00 46 1011.4
20260505191915 50 28 6.1 13.0 0.00 0.00 0.00 47 1011.4
20260505191819 50 59 7.0 13.0 0.00 0.00 0.00 46 1011.4
20260505191728 50 324 6.1 13.0 0.00 0.00 0.00 46 1011.4
20260505191605 50 355 5.2 13.0 0.00 0.00 0.00 47 1011.5
20260505191509 50 355 7.8 13.0 0.00 0.00 0.00 46 1011.5
20260505191433 50 13 8.7 13.0 0.00 0.00 0.00 48 1011.4
20260505191336 49 19 7.8 13.0 0.00 0.00 0.00 49 1011.4
20260505191218 49 342 6.1 13.0 0.00 0.00 0.00 46 1011.4
20260505191106 49 15 5.2 13.0 0.00 0.00 0.00 47 1011.5
20260505191009 49 355 5.2 13.0 0.00 0.00 0.00 47 1011.4
20260505190914 49 360 6.1 15.6 0.00 0.00 0.00 48 1011.5
20260505190818 49 346 7.0 15.6 0.00 0.00 0.00 45 1011.4
20260505190742 49 301 8.7 15.6 0.00 0.00 0.00 47 1011.4
20260505190606 49 305 8.7 15.6 0.00 0.00 0.00 47 1011.4
20260505190530 48 286 6.1 15.6 0.00 0.00 0.00 48 1011.5
20260505190416 48 17 7.0 15.6 0.00 0.00 0.00 48 1011.4
20260505190319 48 19 7.0 15.6 0.00 0.00 0.00 48 1011.4
20260505190204 48 335 5.2 15.6 0.00 0.00 0.00 47 1011.5
20260505190128 48 344 8.7 15.6 0.00 0.00 0.00 48 1011.5
20260505190030 48 27 9.6 15.6 0.00 0.00 0.00 45 1011.5
20260505185905 48 12 9.6 14.8 0.00 0.00 0.00 46 1011.7
20260505185809 48 348 8.7 17.4 0.00 0.00 0.00 46 1011.7
20260505185718 48 360 7.8 20.9 0.00 0.00 0.00 47 1011.6
20260505185623 48 347 7.0 20.9 0.00 0.00 0.00 49 1011.5
20260505185527 48 317 7.0 20.9 0.00 0.00 0.00 50 1011.7
20260505185405 48 291 7.0 20.9 0.00 0.00 0.00 48 1011.6
20260505185330 48 306 7.8 20.9 0.00 0.00 0.00 48 1011.5
20260505185207 48 309 10.4 20.9 0.00 0.00 0.00 46 1011.5
20260505185114 48 305 11.3 20.9 0.00 0.00 0.00 45 1011.6
20260505185039 48 292 12.2 20.9 0.00 0.00 0.00 46 1011.7
20260505184923 48 355 13.0 20.9 0.00 0.00 0.00 46 1011.6
20260505184808 49 288 10.4 15.6 0.00 0.00 0.00 46 1011.5
20260505184712 49 313 9.6 15.6 0.00 0.00 0.00 46 1011.5
20260505184616 49 327 8.7 15.6 0.00 0.00 0.00 48 1011.4
20260505184525 49 45 7.8 15.6 0.00 0.00 0.00 46 1011.5
20260505184409 49 355 7.0 15.6 0.00 0.00 0.00 46 1011.4
20260505184313 49 355 6.1 19.1 0.00 0.00 0.00 45 1011.4
20260505184238 49 337 7.0 19.1 0.00 0.00 0.00 45 1011.5
20260505184121 49 339 7.8 19.1 0.00 0.00 0.00 45 1011.5
20260505184006 49 306 9.6 19.1 0.00 0.00 0.00 45 1011.5
20260505183911 49 334 9.6 19.1 0.00 0.00 0.00 45 1011.6
20260505183819 49 346 8.7 19.1 0.00 0.00 0.00 46 1011.6
20260505183723 49 333 8.7 19.1 0.00 0.00 0.00 47 1011.6
20260505183609 49 11 10.4 19.1 0.00 0.00 0.00 46 1011.5
20260505183512 49 311 9.6 19.1 0.00 0.00 0.00 49 1011.6
20260505183415 49 327 8.7 14.8 0.00 0.00 0.00 46 1011.4
20260505183320 49 331 9.6 14.8 0.00 0.00 0.00 45 1011.6
20260505183249 48 360 9.6 13.9 0.00 0.00 0.00 47 1011.6
20260505183105 48 5 7.8 13.9 0.00 0.00 0.00 46 1011.6
20260505183030 48 337 7.8 13.9 0.00 0.00 0.00 46 1011.6
20260505182907 48 13 7.8 13.9 0.00 0.00 0.00 47 1011.5
20260505182812 48 336 7.8 13.9 0.00 0.00 0.00 46 1011.4
20260505182716 48 311 8.7 13.9 0.00 0.00 0.00 46 1011.6
20260505182623 48 313 7.0 13.9 0.00 0.00 0.00 48 1011.5
20260505182508 48 16 6.1 13.9 0.00 0.00 0.00 47 1011.5
20260505182432 48 333 7.8 13.9 0.00 0.00 0.00 50 1011.4
20260505182315 48 342 8.7 13.9 0.00 0.00 0.00 48 1011.5
20260505182239 48 310 8.7 13.9 0.00 0.00 0.00 47 1011.4
20260505182123 48 317 7.8 13.0 0.00 0.00 0.00 46 1011.4
20260505182023 48 329 7.8 13.0 0.00 0.00 0.00 48 1011.4
20260505181932 48 296 8.7 13.0 0.00 0.00 0.00 47 1011.4
20260505181814 48 332 8.7 13.0 0.00 0.00 0.00 49 1011.4
20260505181717 48 313 8.7 13.0 0.00 0.00 0.00 48 1011.6
20260505181622 48 325 8.7 13.0 0.00 0.00 0.00 47 1011.6
20260505181526 48 330 8.7 13.9 0.00 0.00 0.00 48 1011.5
20260505181410 48 329 7.8 13.9 0.00 0.00 0.00 47 1011.5
20260505181315 48 346 6.1 13.9 0.00 0.00 0.00 48 1011.4
20260505181244 47 345 7.0 13.9 0.00 0.00 0.00 48 1011.4
20260505181128 47 360 7.8 13.9 0.00 0.00 0.00 48 1011.6
20260505181051 47 30 8.7 13.9 0.00 0.00 0.00 50 1011.4
20260505180907 47 338 7.8 13.9 0.00 0.00 0.00 48 1011.4
20260505180811 47 351 7.8 13.9 0.00 0.00 0.00 49 1011.4
20260505180716 47 348 7.0 13.9 0.00 0.00 0.00 49 1011.5
20260505180605 47 5 5.2 13.0 0.00 0.00 0.00 48 1011.4
20260505180509 47 314 7.0 13.0 0.00 0.00 0.00 47 1011.3
20260505180431 47 328 8.7 13.0 0.00 0.00 0.00 48 1011.3
20260505180309 47 294 7.8 13.0 0.00 0.00 0.00 48 1011.4
20260505180214 47 326 7.0 13.0 0.00 0.00 0.00 48 1011.4
20260505180116 47 348 6.1 14.8 0.00 0.00 0.00 48 1011.4
20260505180021 47 334 6.1 14.8 0.00 0.00 0.00 48 1011.4
20260505175930 47 338 7.8 14.8 0.00 0.00 0.00 47 1011.5
20260505175807 47 345 7.8 16.5 0.00 0.00 0.00 47 1011.5
20260505175731 47 348 8.7 16.5 0.00 0.00 0.00 46 1011.4
20260505175611 47 333 9.6 16.5 0.00 0.00 0.00 47 1011.3
20260505175512 47 344 10.4 16.5 0.00 0.00 0.00 46 1011.4
20260505175413 47 339 10.4 17.4 0.00 0.00 0.00 45 1011.4
20260505175315 47 355 9.6 17.4 0.00 0.00 0.00 47 1011.4
20260505175223 47 318 8.7 17.4 0.00 0.00 0.00 48 1011.5
20260505175123 47 325 10.4 17.4 0.00 0.00 0.00 47 1011.5
20260505175026 47 330 12.2 17.4 0.00 0.00 0.00 46 1011.4
20260505174907 47 360 11.3 17.4 0.00 0.00 0.00 47 1011.4
20260505174811 47 5 12.2 17.4 0.00 0.00 0.00 47 1011.5
20260505174716 47 340 12.2 17.4 0.00 0.00 0.00 48 1011.7
20260505174645 47 355 11.3 17.4 0.00 0.00 0.00 47 1011.4
20260505174548 47 20 11.3 17.4 0.00 0.00 0.00 47 1011.4
20260505174405 47 360 11.3 16.5 0.00 0.00 0.00 47 1011.4
20260505174309 47 38 10.4 16.5 0.00 0.00 0.00 48 1011.4
20260505174214 47 346 8.7 16.5 0.00 0.00 0.00 47 1011.6
20260505174117 47 329 9.6 16.5 0.00 0.00 0.00 47 1011.6
20260505174021 48 27 11.3 16.5 0.00 0.00 0.00 46 1011.6
20260505173926 48 328 11.3 16.5 0.00 0.00 0.00 45 1011.6
20260505173808 48 336 8.7 14.8 0.00 0.00 0.00 47 1011.5
20260505173712 48 11 7.8 11.3 0.00 0.00 0.00 46 1011.4
20260505173615 48 303 7.0 13.0 0.00 0.00 0.00 47 1011.4
20260505173518 48 313 6.1 13.0 0.00 0.00 0.00 49 1011.3
20260505173441 48 327 7.0 13.0 0.00 0.00 0.00 48 1011.3
20260505173343 48 309 7.0 13.0 0.00 0.00 0.00 49 1011.3
20260505173250 48 301 6.1 13.0 0.00 0.00 0.00 47 1011.3
20260505173107 48 12 5.2 13.9 0.00 0.00 0.00 48 1011.3
20260505173010 48 38 7.0 13.9 0.00 0.00 0.00 48 1011.4
20260505172915 48 32 8.7 13.9 0.00 0.00 0.00 47 1011.3
20260505172839 48 345 7.0 13.9 0.00 0.00 0.00 47 1011.4
20260505172721 48 5 3.5 13.9 0.00 0.00 0.00 49 1011.3
20260505172609 48 194 4.3 13.9 0.00 0.00 0.00 47 1011.3
20260505172513 48 355 7.0 13.9 0.00 0.00 0.00 49 1011.3
20260505172418 48 5 7.0 13.9 0.00 0.00 0.00 48 1011.3
20260505172322 48 337 7.0 13.9 0.00 0.00 0.00 51 1011.3
20260505172206 48 284 7.8 13.9 0.00 0.00 0.00 48 1011.3
20260505172110 48 340 7.8 13.9 0.00 0.00 0.00 47 1011.3
20260505172018 47 346 7.0 13.9 0.00 0.00 0.00 48 1011.3
20260505171921 47 329 7.0 13.9 0.00 0.00 0.00 48 1011.4
20260505171824 47 325 8.7 13.9 0.00 0.00 0.00 47 1011.4
20260505171728 47 347 8.7 13.9 0.00 0.00 0.00 47 1011.4
20260505171610 47 355 7.8 13.9 0.00 0.00 0.00 52 1011.5
20260505171513 47 292 6.1 13.9 0.00 0.00 0.00 50 1011.4
20260505171417 47 20 6.1 13.9 0.00 0.00 0.00 50 1011.6
20260505171305 47 331 7.0 13.9 0.00 0.00 0.00 50 1011.5
20260505171208 47 15 7.0 13.9 0.00 0.00 0.00 50 1011.5
20260505171113 47 16 7.0 13.9 0.00 0.00 0.00 48 1011.5
20260505171037 47 304 8.7 14.8 0.00 0.00 0.00 49 1011.5
20260505170920 47 322 7.8 14.8 0.00 0.00 0.00 48 1011.6
20260505170844 47 322 7.0 15.6 0.00 0.00 0.00 50 1011.5
20260505170710 47 303 7.8 15.6 0.00 0.00 0.00 48 1011.5
20260505170615 47 360 8.7 15.6 0.00 0.00 0.00 49 1011.6
20260505170519 47 336 8.7 15.6 0.00 0.00 0.00 48 1011.6
20260505170442 47 312 7.8 15.6 0.00 0.00 0.00 49 1011.5
20260505170325 47 314 8.7 16.5 0.00 0.00 0.00 48 1011.4
20260505170228 47 308 9.6 16.5 0.00 0.00 0.00 49 1011.5
20260505170105 47 333 9.6 16.5 0.00 0.00 0.00 48 1011.6
20260505170012 47 339 7.8 16.5 0.00 0.00 0.00 48 1011.6
20260505165914 47 325 7.8 16.5 0.00 0.00 0.00 47 1011.4
20260505165816 47 355 7.8 16.5 0.00 0.00 0.00 49 1011.6
20260505165740 47 314 8.7 16.5 0.00 0.00 0.00 50 1011.5
20260505165642 47 314 11.3 16.5 0.00 0.00 0.00 49 1011.7
20260505165505 47 345 7.8 16.5 0.00 0.00 0.00 51 1011.7
20260505165409 46 18 5.2 13.0 0.00 0.00 0.00 52 1011.6
20260505165317 46 11 6.1 11.3 0.00 0.00 0.00 50 1011.5
20260505165220 46 346 5.2 11.3 0.00 0.00 0.00 52 1011.6
20260505165144 46 355 4.3 11.3 0.00 0.00 0.00 52 1011.7
20260505165028 46 325 6.1 11.3 0.00 0.00 0.00 51 1011.7
20260505164904 46 5 7.8 11.3 0.00 0.00 0.00 49 1011.6
20260505164809 46 355 7.0 11.3 0.00 0.00 0.00 50 1011.6
20260505164717 46 49 6.1 11.3 0.00 0.00 0.00 50 1011.7
20260505164620 46 15 7.0 11.3 0.00 0.00 0.00 50 1011.6
20260505164523 46 317 7.8 11.3 0.00 0.00 0.00 49 1011.7
20260505164428 46 328 7.8 11.3 0.00 0.00 0.00 51 1011.6
20260505164305 46 335 4.3 11.3 0.00 0.00 0.00 52 1011.6
20260505164210 46 350 2.6 12.2 0.00 0.00 0.00 52 1011.6
20260505164117 46 309 3.5 13.0 0.00 0.00 0.00 53 1011.6
20260505164021 46 294 5.2 13.0 0.00 0.00 0.00 51 1011.6
20260505163945 46 325 5.2 13.0 0.00 0.00 0.00 51 1011.6
20260505163808 46 306 5.2 13.0 0.00 0.00 0.00 49 1011.6
20260505163711 46 5 6.1 13.0 0.00 0.00 0.00 50 1011.6
20260505163616 46 5 5.2 13.0 0.00 0.00 0.00 51 1011.6
20260505163520 46 22 7.0 13.0 0.00 0.00 0.00 51 1011.6
20260505163427 46 355 7.8 13.0 0.00 0.00 0.00 50 1011.6
20260505163329 46 355 5.2 13.0 0.00 0.00 0.00 52 1011.7
20260505163213 46 314 4.3 11.3 0.00 0.00 0.00 52 1011.6
20260505163118 46 334 7.0 13.9 0.00 0.00 0.00 50 1011.5
20260505163022 46 344 6.1 16.5 0.00 0.00 0.00 52 1011.6
20260505162906 46 331 5.2 16.5 0.00 0.00 0.00 51 1011.6
20260505162830 46 342 5.2 16.5 0.00 0.00 0.00 51 1011.5
20260505162717 46 9 5.2 16.5 0.00 0.00 0.00 50 1011.4
20260505162622 46 355 5.2 16.5 0.00 0.00 0.00 49 1011.6
20260505162526 46 40 6.1 16.5 0.00 0.00 0.00 50 1011.4
20260505162409 46 315 8.7 16.5 0.00 0.00 0.00 50 1011.5
20260505162332 46 10 11.3 16.5 0.00 0.00 0.00 48 1011.5
20260505162212 47 17 12.2 16.5 0.00 0.00 0.00 48 1011.4
20260505162117 47 347 10.4 16.5 0.00 0.00 0.00 49 1011.2
20260505162005 47 351 7.0 15.6 0.00 0.00 0.00 50 1011.3
20260505161909 47 351 7.8 16.5 0.00 0.00 0.00 51 1011.4
20260505161833 47 53 7.8 17.4 0.00 0.00 0.00 49 1011.5
20260505161716 47 51 7.8 17.4 0.00 0.00 0.00 52 1011.4
20260505161619 47 345 7.8 17.4 0.00 0.00 0.00 50 1011.4
20260505161522 47 23 7.8 17.4 0.00 0.00 0.00 49 1011.5
20260505161429 47 56 7.0 17.4 0.00 0.00 0.00 50 1011.4
20260505161352 47 348 8.7 17.4 0.00 0.00 0.00 49 1011.7
20260505161207 47 314 12.2 17.4 0.00 0.00 0.00 50 1011.6
20260505161110 47 350 13.0 17.4 0.00 0.00 0.00 49 1011.4
20260505161033 47 32 10.4 19.1 0.00 0.00 0.00 52 1011.8
20260505160915 46 360 7.0 19.1 0.00 0.00 0.00 52 1011.5
20260505160818 46 35 7.0 19.1 0.00 0.00 0.00 54 1011.5
20260505160706 46 20 7.8 19.1 0.00 0.00 0.00 52 1011.8
20260505160628 46 355 9.6 19.1 0.00 0.00 0.00 53 1011.4
20260505160531 46 319 10.4 19.1 0.00 0.00 0.00 50 1011.6
20260505160406 46 355 12.2 19.1 0.00 0.00 0.00 50 1011.7
20260505160309 46 321 14.8 19.1 0.00 0.00 0.00 50 1011.4
20260505160233 46 320 13.0 19.1 0.00 0.00 0.00 53 1011.3
20260505160114 46 317 8.7 16.5 0.00 0.00 0.00 53 1011.2
20260505153339 45 24 7.0 13.9 0.00 0.00 0.00 51 1011.7
20260505153223 45 343 8.7 13.9 0.00 0.00 0.00 50 1011.5
20260505153108 45 360 7.0 13.9 0.00 0.00 0.00 51 1011.6
20260505153012 45 30 7.0 13.9 0.00 0.00 0.00 50 1011.6
20260505152932 45 5 8.7 13.9 0.00 0.00 0.00 50 1011.7
20260505152806 45 350 8.7 13.9 0.00 0.00 0.00 51 1011.6
20260505152731 45 355 8.7 13.9 0.00 0.00 0.00 51 1011.6
20260505152633 45 21 9.6 13.9 0.00 0.00 0.00 51 1011.7
20260505152536 45 312 9.6 13.9 0.00 0.00 0.00 53 1011.6
20260505152418 45 29 8.7 16.5 0.00 0.00 0.00 53 1011.6
20260505152305 45 10 8.7 16.5 0.00 0.00 0.00 51 1011.4
20260505152228 45 5 6.1 16.5 0.00 0.00 0.00 51 1011.6
20260505152131 45 340 6.1 16.5 0.00 0.00 0.00 51 1011.4
20260505152007 45 323 6.1 16.5 0.00 0.00 0.00 51 1011.4
20260505151910 46 295 6.1 16.5 0.00 0.00 0.00 53 1011.4
20260505151813 46 288 7.8 16.5 0.00 0.00 0.00 53 1011.4
20260505151716 46 5 10.4 16.5 0.00 0.00 0.00 52 1011.4
20260505151643 46 342 8.7 16.5 0.00 0.00 0.00 53 1011.3
20260505151505 45 355 6.1 15.6 0.00 0.00 0.00 53 1011.4
20260505151408 45 297 6.1 15.6 0.00 0.00 0.00 53 1011.4
20260505151331 45 5 6.1 15.6 0.00 0.00 0.00 51 1011.4
20260505151207 45 320 6.1 15.6 0.00 0.00 0.00 51 1011.4
20260505151110 45 298 7.0 15.6 0.00 0.00 0.00 51 1011.4
20260505151035 45 5 8.7 15.6 0.00 0.00 0.00 51 1011.4
20260505150921 45 19 10.4 15.6 0.00 0.00 0.00 51 1011.4
20260505150826 45 348 9.6 15.6 0.00 0.00 0.00 50 1011.4
20260505150727 45 346 7.0 15.6 0.00 0.00 0.00 52 1011.4
20260505150611 45 318 7.0 15.6 0.00 0.00 0.00 52 1011.5
20260505150513 45 320 7.8 15.6 0.00 0.00 0.00 52 1011.5
20260505150436 45 337 8.7 15.6 0.00 0.00 0.00 51 1011.5
20260505150337 45 5 8.7 15.6 0.00 0.00 0.00 51 1011.4
20260505150221 45 342 8.7 15.6 0.00 0.00 0.00 52 1011.4
20260505150126 45 360 10.4 15.6 0.00 0.00 0.00 50 1011.3
20260505140622 43 33 5.2 8.7 0.00 0.00 0.00 53 1011.2
20260505140509 43 330 4.3 11.3 0.00 0.00 0.00 53 1011.2
20260505140410 43 11 3.5 11.3 0.00 0.00 0.00 54 1011.1
20260505140312 43 32 4.3 11.3 0.00 0.00 0.00 54 1011.1
20260505140215 43 24 4.3 11.3 0.00 0.00 0.00 54 1011.2
20260505140115 43 355 4.3 11.3 0.00 0.00 0.00 53 1011.1
20260505130312 40 360 8.7 14.8 0.00 0.00 0.00 56 1010.4
20260505130217 40 14 7.0 14.8 0.00 0.00 0.00 57 1010.4
20260505130126 40 355 7.0 14.8 0.00 0.00 0.00 57 1010.3
20260505125041 40 345 7.0 13.0 0.00 0.00 0.00 58 1010.1
20260505124907 40 15 6.1 10.4 0.00 0.00 0.00 58 1010.0
20260505124812 40 360 7.0 11.3 0.00 0.00 0.00 58 1010.1
20260505124717 40 13 6.1 12.2 0.00 0.00 0.00 59 1010.1
20260505124622 39 342 5.2 12.2 0.00 0.00 0.00 59 1010.0
20260505124507 39 5 4.3 12.2 0.00 0.00 0.00 59 1010.0
20260505124411 39 360 5.2 12.2 0.00 0.00 0.00 59 1010.1
20260505124335 39 32 4.3 12.2 0.00 0.00 0.00 59 1010.0
20260505124223 39 5 5.2 12.2 0.00 0.00 0.00 59 1010.0
20260505124106 39 15 7.0 12.2 0.00 0.00 0.00 58 1010.1
20260505124010 39 360 8.7 12.2 0.00 0.00 0.00 58 1010.1
20260505123913 39 23 7.8 12.2 0.00 0.00 0.00 59 1010.0
20260505123838 39 12 6.1 11.3 0.00 0.00 0.00 59 1010.1
20260505123741 39 52 6.1 11.3 0.00 0.00 0.00 59 1010.0
20260505123609 39 36 5.2 11.3 0.00 0.00 0.00 60 1009.9
20260505123513 39 43 5.2 13.0 0.00 0.00 0.00 60 1009.9
20260505123438 39 351 7.0 13.0 0.00 0.00 0.00 60 1009.9
20260505123340 39 15 7.0 13.0 0.00 0.00 0.00 60 1009.9
20260505123223 39 38 7.0 13.0 0.00 0.00 0.00 60 1009.9
20260505123107 39 22 6.1 13.0 0.00 0.00 0.00 61 1009.8
20260505123012 39 360 5.2 13.0 0.00 0.00 0.00 61 1009.9
20260505122937 39 17 5.2 13.0 0.00 0.00 0.00 61 1009.9
20260505122844 39 355 7.0 13.0 0.00 0.00 0.00 61 1009.8
20260505122727 39 5 7.0 13.0 0.00 0.00 0.00 61 1009.8
20260505122630 39 320 7.0 11.3 0.00 0.00 0.00 61 1009.8
20260505122508 39 355 5.2 11.3 0.00 0.00 0.00 62 1009.8
20260505122413 39 345 5.2 9.6 0.00 0.00 0.00 63 1009.8
20260505122333 39 21 5.2 9.6 0.00 0.00 0.00 63 1009.8
20260505122208 38 17 6.1 9.6 0.00 0.00 0.00 63 1009.7
20260505122112 38 28 5.2 9.6 0.00 0.00 0.00 63 1009.8
20260505122033 38 20 5.2 9.6 0.00 0.00 0.00 63 1009.8
20260505121953 38 16 5.2 9.6 0.00 0.00 0.00 63 1009.7
20260505121805 38 9 6.1 9.6 0.00 0.00 0.00 63 1009.8
20260505121710 38 355 6.1 9.6 0.00 0.00 0.00 63 1009.7
20260505121614 38 44 6.1 9.6 0.00 0.00 0.00 63 1009.7
20260505121519 38 46 6.1 9.6 0.00 0.00 0.00 64 1009.7
20260505121407 38 360 7.0 9.6 0.00 0.00 0.00 63 1009.7
20260505121310 38 24 7.8 9.6 0.00 0.00 0.00 63 1009.7
20260505121215 38 355 6.1 8.7 0.00 0.00 0.00 64 1009.7
20260505121115 38 355 6.1 8.7 0.00 0.00 0.00 64 1009.6
20260505121016 38 5 7.0 8.7 0.00 0.00 0.00 64 1009.7
20260505120918 38 360 5.2 8.7 0.00 0.00 0.00 65 1009.6
20260505120822 38 350 4.3 8.7 0.00 0.00 0.00 65 1009.6
20260505120722 38 13 4.3 8.7 0.00 0.00 0.00 65 1009.7
20260505120624 38 334 4.3 8.7 0.00 0.00 0.00 65 1009.6
20260505120525 38 343 5.2 8.7 0.00 0.00 0.00 65 1009.5
20260505120407 38 328 5.2 9.6 0.00 0.00 0.00 65 1009.6
20260505120307 38 355 6.1 9.6 0.00 0.00 0.00 66 1009.5
20260505120213 38 355 5.2 9.6 0.00 0.00 0.00 66 1009.6
20260505120114 38 26 4.3 9.6 0.00 0.00 0.00 66 1009.6
20260505120016 38 355 4.3 9.6 0.00 0.00 0.00 66 1009.5
20260505115937 37 339 5.2 9.6 0.00 0.00 0.00 66 1009.5
20260505115838 37 309 5.2 9.6 0.00 0.00 0.00 66 1009.4
20260505115718 37 12 5.2 9.6 0.00 0.00 0.00 66 1009.5
20260505115620 37 20 5.2 9.6 0.00 0.00 0.00 67 1009.4
20260505115526 37 336 5.2 9.6 0.00 0.00 0.00 67 1009.3
20260505115407 37 349 4.3 8.7 0.00 0.00 0.00 67 1009.4
20260505115309 37 344 5.2 9.6 0.00 0.00 0.00 67 1009.4
20260505115230 37 355 6.1 10.4 0.00 0.00 0.00 67 1009.4
20260505115111 37 360 6.1 10.4 0.00 0.00 0.00 67 1009.4
20260505115011 37 350 5.2 10.4 0.00 0.00 0.00 68 1009.4
20260505114933 37 360 4.3 10.4 0.00 0.00 0.00 68 1009.2
20260505114817 37 30 3.5 10.4 0.00 0.00 0.00 68 1009.3
20260505114719 37 325 4.3 10.4 0.00 0.00 0.00 68 1009.3
20260505114620 37 5 7.0 10.4 0.00 0.00 0.00 68 1009.3
20260505114522 37 5 7.0 10.4 0.00 0.00 0.00 68 1009.3
20260505114424 37 28 7.0 10.4 0.00 0.00 0.00 68 1009.2
20260505114325 37 23 6.1 10.4 0.00 0.00 0.00 68 1009.2
20260505114210 37 348 6.1 8.7 0.00 0.00 0.00 68 1009.3
20260505114111 37 337 6.1 8.7 0.00 0.00 0.00 69 1009.2
20260505114011 37 11 6.1 10.4 0.00 0.00 0.00 69 1009.3
20260505113913 37 5 6.1 10.4 0.00 0.00 0.00 69 1009.2
20260505113815 37 348 6.1 10.4 0.00 0.00 0.00 69 1009.2
20260505113716 36 303 6.1 10.4 0.00 0.00 0.00 69 1009.2
20260505113618 36 355 5.2 10.4 0.00 0.00 0.00 69 1009.2
20260505113523 36 344 4.3 10.4 0.00 0.00 0.00 70 1009.1
20260505113443 36 360 6.1 11.3 0.00 0.00 0.00 70 1009.2
20260505113324 36 355 6.1 11.3 0.00 0.00 0.00 70 1009.1
20260505113224 36 346 5.2 11.3 0.00 0.00 0.00 70 1009.1
20260505113145 36 316 4.3 11.3 0.00 0.00 0.00 70 1009.2
20260505113026 36 5 6.1 11.3 0.00 0.00 0.00 70 1009.1
20260505112927 36 10 7.0 11.3 0.00 0.00 0.00 70 1009.1
20260505112832 36 339 7.8 11.3 0.00 0.00 0.00 71 1009.1
20260505112711 36 360 7.0 11.3 0.00 0.00 0.00 71 1009.1
20260505112633 36 360 6.1 11.3 0.00 0.00 0.00 71 1009.0
20260505112534 36 327 5.2 10.4 0.00 0.00 0.00 71 1009.0
20260505112407 36 346 7.0 10.4 0.00 0.00 0.00 72 1009.0
20260505112329 36 341 7.8 10.4 0.00 0.00 0.00 72 1008.9
20260505112209 36 346 5.2 10.4 0.00 0.00 0.00 72 1008.9
20260505112113 36 341 3.5 7.8 0.00 0.00 0.00 72 1008.9
20260505112019 36 331 5.2 7.8 0.00 0.00 0.00 72 1008.9
20260505111921 36 323 5.2 7.8 0.00 0.00 0.00 72 1008.9
20260505111841 36 346 3.5 7.8 0.00 0.00 0.00 72 1008.9
20260505111721 36 360 3.5 7.8 0.00 0.00 0.00 72 1008.8
20260505111622 36 5 4.3 7.8 0.00 0.00 0.00 72 1008.9
20260505111523 36 5 5.2 7.8 0.00 0.00 0.00 72 1008.8
20260505111423 36 360 5.2 7.8 0.00 0.00 0.00 72 1008.8
20260505111308 36 349 4.3 7.0 0.00 0.00 0.00 72 1008.8
20260505111229 36 360 4.3 7.0 0.00 0.00 0.00 73 1008.8
20260505111106 36 355 4.3 7.0 0.00 0.00 0.00 73 1008.8
20260505111010 36 341 3.5 8.7 0.00 0.00 0.00 73 1008.8
20260505110913 36 348 3.5 8.7 0.00 0.00 0.00 73 1008.8
20260505110817 36 347 3.5 8.7 0.00 0.00 0.00 73 1008.9
20260505110725 36 5 3.5 8.7 0.00 0.00 0.00 73 1008.7
20260505110650 36 330 3.5 8.7 0.00 0.00 0.00 73 1008.9
20260505110505 36 326 3.5 8.7 0.00 0.00 0.00 73 1008.8
20260505110430 36 5 3.5 8.7 0.00 0.00 0.00 73 1008.9
20260505110306 36 340 4.3 8.7 0.00 0.00 0.00 73 1008.9
20260505110231 36 344 4.3 8.7 0.00 0.00 0.00 72 1008.8
20260505110113 36 5 4.3 8.7 0.00 0.00 0.00 72 1008.8
20260505102204 37 5 3.5 7.8 0.00 0.00 0.00 71 1008.7
20260505102107 37 337 3.5 7.8 0.00 0.00 0.00 72 1008.6
20260505102015 37 30 4.3 7.8 0.00 0.00 0.00 71 1008.6
20260505101938 37 349 3.5 7.8 0.00 0.00 0.00 71 1008.5
20260505101823 37 350 3.5 7.8 0.00 0.00 0.00 71 1008.6
20260505101707 37 355 3.5 7.8 0.00 0.00 0.00 71 1008.6
20260505101610 37 360 3.5 7.8 0.00 0.00 0.00 71 1008.6
20260505101515 37 346 4.3 7.8 0.00 0.00 0.00 71 1008.6
20260505101420 37 29 4.3 7.8 0.00 0.00 0.00 71 1008.5
20260505101307 37 314 4.3 7.8 0.00 0.00 0.00 71 1008.5
20260505101212 37 347 4.3 7.8 0.00 0.00 0.00 71 1008.6
20260505101117 37 331 5.2 7.8 0.00 0.00 0.00 71 1008.5
20260505101041 37 331 5.2 7.8 0.00 0.00 0.00 71 1008.6
20260505100925 37 355 3.5 7.8 0.00 0.00 0.00 71 1008.6
20260505100808 37 316 3.5 7.0 0.00 0.00 0.00 71 1008.6
20260505100717 37 348 3.5 7.0 0.00 0.00 0.00 70 1008.6
20260505100621 37 339 3.5 7.0 0.00 0.00 0.00 70 1008.5
20260505100505 37 348 3.5 7.0 0.00 0.00 0.00 70 1008.6
20260505100428 37 5 3.5 7.0 0.00 0.00 0.00 70 1008.6
20260505100311 37 339 4.3 7.8 0.00 0.00 0.00 70 1008.6
20260505100236 37 355 4.3 7.8 0.00 0.00 0.00 70 1008.6
20260505100120 37 336 3.5 7.8 0.00 0.00 0.00 70 1008.6
20260505100027 37 16 3.5 7.8 0.00 0.00 0.00 70 1008.6
20260505095904 37 350 4.3 7.8 0.00 0.00 0.00 70 1008.6
20260505095809 37 343 3.5 7.8 0.00 0.00 0.00 70 1008.7
20260505095714 37 336 3.5 7.8 0.00 0.00 0.00 70 1008.6
20260505095617 37 317 4.3 7.8 0.00 0.00 0.00 70 1008.7
20260505095522 37 341 4.3 7.8 0.00 0.00 0.00 70 1008.6
20260505095430 38 355 3.5 7.0 0.00 0.00 0.00 70 1008.7
20260505095307 38 350 3.5 7.0 0.00 0.00 0.00 70 1008.6
20260505095210 38 360 3.5 7.8 0.00 0.00 0.00 70 1008.6
20260505095114 38 333 3.5 7.8 0.00 0.00 0.00 70 1008.6
20260505095018 38 311 3.5 7.8 0.00 0.00 0.00 70 1008.7
20260505094942 38 339 3.5 7.8 0.00 0.00 0.00 70 1008.6
20260505094810 38 339 2.6 7.8 0.00 0.00 0.00 70 1008.7
20260505094715 38 337 2.6 9.6 0.00 0.00 0.00 70 1008.6
20260505094639 38 309 3.5 9.6 0.00 0.00 0.00 69 1008.7
20260505094522 38 346 4.3 9.6 0.00 0.00 0.00 69 1008.6
20260505094407 38 355 4.3 9.6 0.00 0.00 0.00 70 1008.6
20260505094311 38 351 3.5 9.6 0.00 0.00 0.00 70 1008.6
20260505094214 38 349 3.5 9.6 0.00 0.00 0.00 70 1008.6
20260505094142 38 360 4.3 9.6 0.00 0.00 0.00 69 1008.6
20260505094025 38 342 6.1 9.6 0.00 0.00 0.00 69 1008.6
20260505093949 38 329 5.2 9.6 0.00 0.00 0.00 69 1008.6
20260505093805 38 340 4.3 9.6 0.00 0.00 0.00 69 1008.5
20260505093710 38 335 4.3 9.6 0.00 0.00 0.00 69 1008.5
20260505093634 38 327 4.3 9.6 0.00 0.00 0.00 69 1008.5
20260505093518 38 348 4.3 9.6 0.00 0.00 0.00 69 1008.5
20260505093406 38 339 7.0 9.6 0.00 0.00 0.00 69 1008.4
20260505093311 38 333 6.1 9.6 0.00 0.00 0.00 69 1008.5
20260505093215 38 326 4.3 9.6 0.00 0.00 0.00 69 1008.5
20260505093120 38 333 3.5 9.6 0.00 0.00 0.00 69 1008.4
20260505093005 38 350 3.5 9.6 0.00 0.00 0.00 69 1008.5
20260505092909 38 327 4.3 9.6 0.00 0.00 0.00 68 1008.4
20260505092816 38 350 4.3 9.6 0.00 0.00 0.00 68 1008.4
20260505092740 38 327 5.2 9.6 0.00 0.00 0.00 68 1008.4
20260505092624 38 355 5.2 8.7 0.00 0.00 0.00 68 1008.5
20260505092529 38 336 6.1 8.7 0.00 0.00 0.00 68 1008.4
20260505092413 38 321 4.3 8.7 0.00 0.00 0.00 69 1008.4
20260505092318 38 329 4.3 8.7 0.00 0.00 0.00 69 1008.4
20260505092243 38 346 4.3 8.7 0.00 0.00 0.00 69 1008.4
20260505092130 38 343 4.3 7.8 0.00 0.00 0.00 68 1008.4
20260505092007 38 333 5.2 7.8 0.00 0.00 0.00 68 1008.4
20260505091911 38 310 5.2 9.6 0.00 0.00 0.00 69 1008.4
20260505091815 38 342 4.3 9.6 0.00 0.00 0.00 68 1008.4
20260505091719 38 350 4.3 9.6 0.00 0.00 0.00 68 1008.3
20260505091643 38 348 2.6 11.3 0.00 0.00 0.00 68 1008.4
20260505091511 39 13 3.5 11.3 0.00 0.00 0.00 68 1008.3
20260505091416 39 319 3.5 11.3 0.00 0.00 0.00 68 1008.3
20260505091320 39 291 3.5 11.3 0.00 0.00 0.00 67 1008.3
20260505091224 39 339 5.2 11.3 0.00 0.00 0.00 67 1008.3
20260505091108 39 325 5.2 11.3 0.00 0.00 0.00 67 1008.3
20260505091013 39 342 4.3 11.3 0.00 0.00 0.00 67 1008.3
20260505090922 39 355 6.1 11.3 0.00 0.00 0.00 67 1008.2
20260505090826 39 355 7.8 11.3 0.00 0.00 0.00 67 1008.2
20260505090729 39 355 7.0 11.3 0.00 0.00 0.00 67 1008.1
20260505090605 39 355 7.0 12.2 0.00 0.00 0.00 67 1008.1
20260505090509 39 9 7.0 12.2 0.00 0.00 0.00 67 1008.2
20260505090414 39 350 5.2 12.2 0.00 0.00 0.00 67 1008.1
20260505090319 39 319 6.1 12.2 0.00 0.00 0.00 67 1008.2
20260505090227 39 341 5.2 12.2 0.00 0.00 0.00 67 1008.1
20260505090130 39 334 3.5 12.2 0.00 0.00 0.00 67 1008.2
20260505090007 39 22 4.3 12.2 0.00 0.00 0.00 67 1008.1
20260505085912 39 348 7.0 12.2 0.00 0.00 0.00 66 1008.1
20260505085816 39 355 7.0 12.2 0.00 0.00 0.00 66 1008.1
20260505085720 39 323 6.1 12.2 0.00 0.00 0.00 66 1008.1
20260505085628 39 360 7.8 13.9 0.00 0.00 0.00 66 1008.2
20260505085506 39 19 7.0 13.9 0.00 0.00 0.00 66 1008.2
20260505085430 39 360 7.0 13.9 0.00 0.00 0.00 66 1008.2
20260505085308 39 338 8.7 13.9 0.00 0.00 0.00 66 1008.1
20260505085212 39 345 7.8 13.9 0.00 0.00 0.00 66 1008.2
20260505085137 39 345 5.2 13.9 0.00 0.00 0.00 67 1008.2
20260505085020 39 327 7.0 13.9 0.00 0.00 0.00 67 1008.2
20260505084928 39 345 8.7 13.9 0.00 0.00 0.00 66 1008.2
20260505084830 39 5 8.7 13.9 0.00 0.00 0.00 66 1008.1
20260505084708 39 355 7.8 13.0 0.00 0.00 0.00 66 1008.1
20260505084631 39 334 7.0 13.0 0.00 0.00 0.00 66 1008.1
20260505084514 39 43 5.2 13.0 0.00 0.00 0.00 66 1008.1
20260505084416 39 327 7.0 13.0 0.00 0.00 0.00 66 1008.0
20260505084319 39 21 7.8 13.0 0.00 0.00 0.00 66 1008.1
20260505084206 39 338 8.7 12.2 0.00 0.00 0.00 66 1008.0
20260505084130 39 344 9.6 12.2 0.00 0.00 0.00 66 1008.0
20260505084031 39 342 9.6 12.2 0.00 0.00 0.00 66 1008.0
20260505083913 39 319 8.7 12.2 0.00 0.00 0.00 66 1007.9
20260505083816 39 350 7.8 12.2 0.00 0.00 0.00 66 1007.9
20260505083720 39 313 7.8 12.2 0.00 0.00 0.00 66 1007.9
20260505083606 39 343 7.0 12.2 0.00 0.00 0.00 66 1007.9
20260505083529 39 34 5.2 11.3 0.00 0.00 0.00 66 1007.9
20260505083406 39 341 4.3 12.2 0.00 0.00 0.00 66 1007.8
20260505083309 39 355 4.3 12.2 0.00 0.00 0.00 66 1007.7
20260505083211 39 355 4.3 12.2 0.00 0.00 0.00 66 1007.8
20260505083114 39 297 6.1 12.2 0.00 0.00 0.00 66 1007.8
20260505083017 40 335 7.0 12.2 0.00 0.00 0.00 66 1007.7
20260505082904 39 11 6.1 12.2 0.00 0.00 0.00 66 1007.7
20260505082807 39 311 7.0 12.2 0.00 0.00 0.00 66 1007.7
20260505082710 40 332 7.0 12.2 0.00 0.00 0.00 66 1007.6
20260505082615 40 35 6.1 13.9 0.00 0.00 0.00 66 1007.6
20260505082517 40 349 5.2 13.9 0.00 0.00 0.00 66 1007.6
20260505082420 40 350 7.0 13.9 0.00 0.00 0.00 66 1007.6
20260505082327 40 325 8.7 13.9 0.00 0.00 0.00 66 1007.6
20260505082229 40 340 8.7 13.9 0.00 0.00 0.00 65 1007.5
20260505082106 40 11 7.8 13.9 0.00 0.00 0.00 65 1007.5
20260505082008 40 355 7.8 13.9 0.00 0.00 0.00 65 1007.5
20260505081911 40 12 7.8 13.9 0.00 0.00 0.00 65 1007.5
20260505081814 40 355 8.7 13.9 0.00 0.00 0.00 65 1007.5
20260505081721 40 339 7.8 13.9 0.00 0.00 0.00 65 1007.5
20260505081625 40 350 5.2 9.6 0.00 0.00 0.00 65 1007.5
20260505081529 40 323 4.3 11.3 0.00 0.00 0.00 65 1007.5
20260505081430 40 360 6.1 11.3 0.00 0.00 0.00 65 1007.5
20260505081306 40 338 6.1 11.3 0.00 0.00 0.00 65 1007.5
20260505081229 40 355 5.2 11.3 0.00 0.00 0.00 65 1007.5
20260505081105 40 317 5.2 11.3 0.00 0.00 0.00 65 1007.6
20260505081012 40 328 6.1 11.3 0.00 0.00 0.00 64 1007.5
20260505080916 40 323 6.1 11.3 0.00 0.00 0.00 65 1007.5
20260505080820 40 333 5.2 11.3 0.00 0.00 0.00 64 1007.5
20260505080705 40 345 5.2 11.3 0.00 0.00 0.00 64 1007.5
20260505080629 40 5 5.2 11.3 0.00 0.00 0.00 64 1007.5
20260505080505 40 329 6.1 12.2 0.00 0.00 0.00 64 1007.5
20260505080413 40 319 5.2 12.2 0.00 0.00 0.00 64 1007.4
20260505080317 40 26 3.5 12.2 0.00 0.00 0.00 64 1007.4
20260505080241 40 5 4.3 12.2 0.00 0.00 0.00 64 1007.4
20260505080105 40 355 5.2 12.2 0.00 0.00 0.00 64 1007.5
20260505080009 40 355 6.1 12.2 0.00 0.00 0.00 64 1007.5
20260505075914 40 331 7.0 12.2 0.00 0.00 0.00 64 1007.4
20260505075819 40 355 6.1 12.2 0.00 0.00 0.00 63 1007.4
20260505075727 40 315 4.3 12.2 0.00 0.00 0.00 64 1007.5
20260505075604 40 306 6.1 9.6 0.00 0.00 0.00 63 1007.5
20260505075530 40 340 7.0 9.6 0.00 0.00 0.00 63 1007.5
20260505075405 40 346 6.1 9.6 0.00 0.00 0.00 63 1007.4
20260505075308 40 333 6.1 9.6 0.00 0.00 0.00 63 1007.4
20260505075212 40 322 7.0 9.6 0.00 0.00 0.00 63 1007.4
20260505075141 40 355 7.0 9.6 0.00 0.00 0.00 63 1007.5
20260505075004 40 321 5.2 8.7 0.00 0.00 0.00 63 1007.5
20260505074908 40 313 5.2 8.7 0.00 0.00 0.00 63 1007.5
20260505074812 40 355 4.3 8.7 0.00 0.00 0.00 63 1007.5
20260505074714 40 331 4.3 8.7 0.00 0.00 0.00 63 1007.5
20260505074637 40 313 4.3 8.7 0.00 0.00 0.00 63 1007.5
20260505074504 40 323 5.2 8.7 0.00 0.00 0.00 63 1007.5
20260505074428 40 335 5.2 8.7 0.00 0.00 0.00 63 1007.5
20260505074305 40 335 4.3 7.8 0.00 0.00 0.00 63 1007.4
20260505074208 40 347 3.5 7.8 0.00 0.00 0.00 63 1007.4
20260505074111 40 324 4.3 7.8 0.00 0.00 0.00 63 1007.4
20260505074015 40 350 4.3 7.8 0.00 0.00 0.00 63 1007.4
20260505073919 41 336 4.3 7.8 0.00 0.00 0.00 63 1007.4
20260505073807 41 324 3.5 7.8 0.00 0.00 0.00 62 1007.3
20260505073711 41 309 3.5 7.8 0.00 0.00 0.00 62 1007.3
20260505073615 41 331 3.5 8.7 0.00 0.00 0.00 62 1007.3
20260505073520 41 346 4.3 8.7 0.00 0.00 0.00 62 1007.3
20260505073424 41 335 4.3 8.7 0.00 0.00 0.00 62 1007.3
20260505073313 41 333 3.5 8.7 0.00 0.00 0.00 63 1007.3
20260505073217 41 5 3.5 8.7 0.00 0.00 0.00 62 1007.4
20260505073121 41 331 4.3 8.7 0.00 0.00 0.00 61 1007.3
20260505073026 41 355 4.3 8.7 0.00 0.00 0.00 61 1007.3
20260505072929 41 314 4.3 8.7 0.00 0.00 0.00 62 1007.3
20260505072805 41 315 5.2 8.7 0.00 0.00 0.00 62 1007.4
20260505072710 41 315 5.2 8.7 0.00 0.00 0.00 61 1007.3
20260505072619 41 360 4.3 8.7 0.00 0.00 0.00 61 1007.4
20260505072543 41 350 3.5 8.7 0.00 0.00 0.00 62 1007.3
20260505072406 41 311 4.3 8.7 0.00 0.00 0.00 61 1007.3
20260505072310 41 348 4.3 8.7 0.00 0.00 0.00 62 1007.3
20260505072213 41 328 4.3 8.7 0.00 0.00 0.00 61 1007.3
20260505072116 41 5 4.3 9.6 0.00 0.00 0.00 61 1007.3
20260505072041 41 329 3.5 9.6 0.00 0.00 0.00 61 1007.3
20260505071907 41 346 3.5 9.6 0.00 0.00 0.00 61 1007.4
20260505071810 41 336 4.3 10.4 0.00 0.00 0.00 61 1007.2
20260505071715 41 345 4.3 10.4 0.00 0.00 0.00 60 1007.2
20260505071619 41 16 4.3 10.4 0.00 0.00 0.00 61 1007.3
20260505071543 41 24 5.2 11.3 0.00 0.00 0.00 61 1007.3
20260505071407 41 321 6.1 11.3 0.00 0.00 0.00 60 1007.3
20260505071315 41 346 6.1 11.3 0.00 0.00 0.00 60 1007.3
20260505071219 41 38 5.2 11.3 0.00 0.00 0.00 60 1007.3
20260505071124 41 337 6.1 11.3 0.00 0.00 0.00 61 1007.3
20260505071009 41 329 5.2 11.3 0.00 0.00 0.00 60 1007.3
20260505070913 41 332 6.1 11.3 0.00 0.00 0.00 60 1007.3
20260505070817 41 330 7.0 11.3 0.00 0.00 0.00 60 1007.3
20260505070706 41 348 6.1 11.3 0.00 0.00 0.00 60 1007.3
20260505070610 41 338 5.2 11.3 0.00 0.00 0.00 60 1007.4
20260505070514 41 355 6.1 11.3 0.00 0.00 0.00 61 1007.5
20260505070418 41 347 6.1 11.3 0.00 0.00 0.00 60 1007.4
20260505070322 41 306 5.2 12.2 0.00 0.00 0.00 60 1007.4
20260505070209 41 288 4.3 12.2 0.00 0.00 0.00 60 1007.4
20260505070113 41 5 4.3 12.2 0.00 0.00 0.00 60 1007.4
20260505070017 41 323 5.2 12.2 0.00 0.00 0.00 60 1007.4
20260505065940 41 340 7.0 12.2 0.00 0.00 0.00 60 1007.4
20260505065824 41 324 7.8 12.2 0.00 0.00 0.00 60 1007.4
20260505065708 42 345 5.2 12.2 0.00 0.00 0.00 60 1007.4
20260505065612 42 316 6.1 12.2 0.00 0.00 0.00 60 1007.3
20260505065521 42 340 5.2 12.2 0.00 0.00 0.00 60 1007.4
20260505065426 42 340 4.3 11.3 0.00 0.00 0.00 60 1007.3
20260505065329 42 328 4.3 11.3 0.00 0.00 0.00 60 1007.3
20260505065205 42 333 5.2 11.3 0.00 0.00 0.00 60 1007.3
20260505065109 42 315 7.0 13.9 0.00 0.00 0.00 60 1007.2
20260505065013 42 334 7.0 13.9 0.00 0.00 0.00 59 1007.3
20260505064922 42 325 6.1 13.9 0.00 0.00 0.00 60 1007.2
20260505064826 42 17 7.0 13.9 0.00 0.00 0.00 60 1007.1
20260505064749 42 314 6.1 13.9 0.00 0.00 0.00 60 1007.3
20260505064606 42 337 5.2 13.9 0.00 0.00 0.00 60 1007.3
20260505064531 42 340 6.1 13.9 0.00 0.00 0.00 60 1007.3
20260505064414 42 360 7.0 13.9 0.00 0.00 0.00 59 1007.3
20260505064317 42 329 6.1 13.9 0.00 0.00 0.00 60 1007.2
20260505064205 42 307 4.3 11.3 0.00 0.00 0.00 60 1007.3
20260505064109 42 336 6.1 11.3 0.00 0.00 0.00 60 1007.3
20260505064013 42 344 6.1 11.3 0.00 0.00 0.00 59 1007.4
20260505063937 42 338 6.1 11.3 0.00 0.00 0.00 60 1007.4
20260505063821 42 360 4.3 11.3 0.00 0.00 0.00 60 1007.3
20260505063724 42 340 5.2 11.3 0.00 0.00 0.00 60 1007.3
20260505063613 42 337 5.2 11.3 0.00 0.00 0.00 60 1007.3
20260505063537 42 355 3.5 9.6 0.00 0.00 0.00 60 1007.3
20260505063439 42 14 4.3 9.6 0.00 0.00 0.00 60 1007.3
20260505063322 42 348 5.2 9.6 0.00 0.00 0.00 59 1007.3
20260505063207 42 337 5.2 9.6 0.00 0.00 0.00 59 1007.3
20260505063111 42 339 4.3 9.6 0.00 0.00 0.00 60 1007.3
20260505063015 42 337 5.2 9.6 0.00 0.00 0.00 59 1007.3
20260505062923 42 324 6.1 9.6 0.00 0.00 0.00 59 1007.4
20260505062827 42 306 4.3 10.4 0.00 0.00 0.00 59 1007.3
20260505062710 42 293 4.3 10.4 0.00 0.00 0.00 58 1007.4
20260505062614 42 333 5.2 10.4 0.00 0.00 0.00 58 1007.3
20260505062518 42 313 5.2 10.4 0.00 0.00 0.00 58 1007.3
20260505062442 42 348 5.2 10.4 0.00 0.00 0.00 58 1007.2
20260505062306 42 334 5.2 10.4 0.00 0.00 0.00 58 1007.3
20260505062214 42 319 5.2 10.4 0.00 0.00 0.00 59 1007.3
20260505062138 42 346 5.2 10.4 0.00 0.00 0.00 59 1007.3
20260505062020 42 318 5.2 10.4 0.00 0.00 0.00 58 1007.2
20260505061924 42 321 6.1 10.4 0.00 0.00 0.00 58 1007.3
20260505061809 42 347 6.1 9.6 0.00 0.00 0.00 58 1007.2
20260505061715 42 337 5.2 12.2 0.00 0.00 0.00 59 1007.3
20260505061605 42 340 4.3 12.2 0.00 0.00 0.00 59 1007.2
20260505061530 42 355 4.3 12.2 0.00 0.00 0.00 59 1007.3
20260505061413 43 322 4.3 12.2 0.00 0.00 0.00 59 1007.3
20260505061318 43 313 5.2 12.2 0.00 0.00 0.00 58 1007.3
20260505061223 43 313 4.3 12.2 0.00 0.00 0.00 59 1007.3
20260505061129 43 325 5.2 12.2 0.00 0.00 0.00 58 1007.4
20260505061014 43 298 5.2 12.2 0.00 0.00 0.00 58 1007.4
20260505060943 43 321 7.0 12.2 0.00 0.00 0.00 58 1007.3
20260505060808 43 304 7.0 12.2 0.00 0.00 0.00 58 1007.4
20260505060733 43 313 4.3 10.4 0.00 0.00 0.00 58 1007.3
20260505060637 43 321 5.2 10.4 0.00 0.00 0.00 57 1007.3
20260505060521 43 315 6.1 12.2 0.00 0.00 0.00 57 1007.3
20260505060406 43 349 5.2 12.2 0.00 0.00 0.00 58 1007.3
20260505060311 43 335 5.2 12.2 0.00 0.00 0.00 58 1007.3
20260505060219 43 360 4.3 12.2 0.00 0.00 0.00 58 1007.3
20260505060105 43 326 5.2 12.2 0.00 0.00 0.00 58 1007.3
20260505060011 43 355 6.1 12.2 0.00 0.00 0.00 57 1007.3
20260505055917 43 317 6.1 13.9 0.00 0.00 0.00 58 1007.2
20260505055822 43 337 7.0 13.9 0.00 0.00 0.00 58 1007.3
20260505055712 43 347 7.8 13.9 0.00 0.00 0.00 58 1007.2
20260505055637 43 332 7.0 13.9 0.00 0.00 0.00 58 1007.1
20260505055521 43 331 5.2 13.9 0.00 0.00 0.00 58 1007.1
20260505055445 43 317 5.2 13.9 0.00 0.00 0.00 58 1007.1
20260505055309 43 336 6.1 13.9 0.00 0.00 0.00 58 1007.1
20260505055213 43 323 7.0 13.9 0.00 0.00 0.00 57 1007.1
20260505055117 43 337 7.8 13.9 0.00 0.00 0.00 58 1007.1
20260505055005 43 344 5.2 12.2 0.00 0.00 0.00 58 1007.1
20260505054910 43 347 5.2 12.2 0.00 0.00 0.00 57 1007.2
20260505054813 43 355 7.0 12.2 0.00 0.00 0.00 58 1007.1
20260505054717 43 17 6.1 12.2 0.00 0.00 0.00 58 1007.2
20260505054621 43 333 5.2 12.2 0.00 0.00 0.00 59 1007.2
20260505054506 43 336 7.0 11.3 0.00 0.00 0.00 58 1007.1
20260505054413 43 9 7.0 11.3 0.00 0.00 0.00 58 1007.0
20260505054318 43 360 7.8 11.3 0.00 0.00 0.00 58 1007.1
20260505054241 43 295 7.0 11.3 0.00 0.00 0.00 58 1007.1
20260505054124 43 325 6.1 11.3 0.00 0.00 0.00 58 1007.1
20260505054008 43 329 6.1 11.3 0.00 0.00 0.00 58 1007.1
20260505053912 43 351 7.0 11.3 0.00 0.00 0.00 58 1007.1
20260505053821 43 301 6.1 11.3 0.00 0.00 0.00 58 1007.1
20260505053706 43 309 6.1 11.3 0.00 0.00 0.00 58 1007.0
20260505053610 43 347 7.8 11.3 0.00 0.00 0.00 58 1007.1
20260505053513 43 355 7.0 11.3 0.00 0.00 0.00 59 1007.1
20260505053418 43 331 7.0 11.3 0.00 0.00 0.00 58 1007.1
20260505053323 43 13 7.0 11.3 0.00 0.00 0.00 58 1007.1
20260505053211 43 320 6.1 11.3 0.00 0.00 0.00 58 1007.0
20260505053115 43 334 6.1 10.4 0.00 0.00 0.00 58 1007.0
20260505053020 43 355 5.2 11.3 0.00 0.00 0.00 59 1007.0
20260505052923 43 302 5.2 11.3 0.00 0.00 0.00 59 1007.0
20260505052807 43 323 5.2 11.3 0.00 0.00 0.00 59 1007.0
20260505052711 43 326 4.3 11.3 0.00 0.00 0.00 58 1007.0
20260505052620 43 340 4.3 11.3 0.00 0.00 0.00 58 1007.0
20260505052504 43 300 6.1 11.3 0.00 0.00 0.00 58 1007.0
20260505052429 43 341 7.8 11.3 0.00 0.00 0.00 58 1007.0
20260505052305 43 347 7.8 11.3 0.00 0.00 0.00 58 1007.0
20260505052211 43 307 6.1 11.3 0.00 0.00 0.00 58 1007.0
20260505052115 43 333 7.0 11.3 0.00 0.00 0.00 58 1007.0
20260505052024 43 291 7.8 11.3 0.00 0.00 0.00 58 1006.9
20260505051909 43 331 7.8 11.3 0.00 0.00 0.00 58 1007.0
20260505051812 43 349 7.8 11.3 0.00 0.00 0.00 58 1007.0
20260505051715 43 336 7.0 10.4 0.00 0.00 0.00 58 1007.0
20260505051618 43 310 5.2 10.4 0.00 0.00 0.00 58 1007.0
20260505051522 43 313 4.3 10.4 0.00 0.00 0.00 59 1006.9
20260505051429 43 322 4.3 10.4 0.00 0.00 0.00 58 1006.9
20260505051305 43 311 6.1 10.4 0.00 0.00 0.00 57 1006.8
20260505051228 43 307 6.1 10.4 0.00 0.00 0.00 58 1006.9
20260505051105 43 355 6.1 10.4 0.00 0.00 0.00 58 1006.8
20260505051008 43 338 7.0 10.4 0.00 0.00 0.00 58 1006.9
20260505050911 43 317 5.2 10.4 0.00 0.00 0.00 59 1006.9
20260505050817 43 335 5.2 9.6 0.00 0.00 0.00 59 1006.9
20260505050721 43 306 6.1 9.6 0.00 0.00 0.00 59 1007.0
20260505050624 43 348 6.1 9.6 0.00 0.00 0.00 59 1007.0
20260505050527 43 333 4.3 9.6 0.00 0.00 0.00 59 1007.0
20260505050430 43 336 4.3 9.6 0.00 0.00 0.00 59 1007.0
20260505050305 43 346 4.3 9.6 0.00 0.00 0.00 59 1006.9
20260505050208 43 338 5.2 9.6 0.00 0.00 0.00 59 1006.9
20260505050115 43 338 5.2 9.6 0.00 0.00 0.00 59 1006.9
20260505041709 44 336 5.2 8.7 0.00 0.00 0.00 57 1006.7
20260505041613 44 321 5.2 8.7 0.00 0.00 0.00 57 1006.8
20260505041517 44 315 5.2 8.7 0.00 0.00 0.00 57 1006.7
20260505041406 44 355 4.3 8.7 0.00 0.00 0.00 57 1006.7
20260505041331 44 320 4.3 8.7 0.00 0.00 0.00 57 1006.7
20260505041214 44 304 4.3 8.7 0.00 0.00 0.00 57 1006.7
20260505041118 45 305 4.3 8.7 0.00 0.00 0.00 58 1006.7
20260505041024 44 313 3.5 8.7 0.00 0.00 0.00 57 1006.7
20260505040929 44 337 4.3 10.4 0.00 0.00 0.00 56 1006.8
20260505040815 45 296 5.2 10.4 0.00 0.00 0.00 56 1006.7
20260505040719 45 350 5.2 10.4 0.00 0.00 0.00 55 1006.8
20260505040623 45 307 5.2 10.4 0.00 0.00 0.00 56 1006.7
20260505040509 44 323 4.3 10.4 0.00 0.00 0.00 56 1006.7
20260505040432 44 331 5.2 10.4 0.00 0.00 0.00 56 1006.7
20260505040315 44 344 6.1 10.4 0.00 0.00 0.00 56 1006.7
20260505040219 44 348 6.1 10.4 0.00 0.00 0.00 56 1006.7
20260505040128 44 326 7.0 10.4 0.00 0.00 0.00 57 1006.7
20260505040005 44 300 6.1 9.6 0.00 0.00 0.00 56 1006.8
20260505035929 44 337 5.2 9.6 0.00 0.00 0.00 57 1006.7
20260505035812 44 288 6.1 9.6 0.00 0.00 0.00 56 1006.8
20260505035717 44 317 6.1 9.6 0.00 0.00 0.00 57 1006.8
20260505035622 44 321 4.3 8.7 0.00 0.00 0.00 58 1006.7
20260505035510 44 317 3.5 9.6 0.00 0.00 0.00 58 1006.7
20260505035413 44 346 3.5 9.6 0.00 0.00 0.00 59 1006.7
20260505035317 44 298 4.3 9.6 0.00 0.00 0.00 58 1006.6
20260505035222 44 307 4.3 9.6 0.00 0.00 0.00 57 1006.7
20260505035126 44 306 3.5 9.6 0.00 0.00 0.00 58 1006.7
20260505035011 44 327 4.3 9.6 0.00 0.00 0.00 57 1006.7
20260505034918 44 355 5.2 9.6 0.00 0.00 0.00 58 1006.6
20260505034843 44 304 5.2 9.6 0.00 0.00 0.00 58 1006.6
20260505034727 44 331 4.3 7.8 0.00 0.00 0.00 58 1006.7
20260505034631 44 307 4.3 7.8 0.00 0.00 0.00 58 1006.6
20260505034507 44 309 4.3 7.8 0.00 0.00 0.00 58 1006.7
20260505034410 44 338 3.5 7.8 0.00 0.00 0.00 58 1006.6
20260505034315 44 304 4.3 7.8 0.00 0.00 0.00 58 1006.7
20260505034238 44 294 4.3 7.8 0.00 0.00 0.00 58 1006.7
20260505034106 44 325 4.3 7.0 0.00 0.00 0.00 58 1006.6
20260505034010 44 309 4.3 7.0 0.00 0.00 0.00 58 1006.7
20260505033915 44 309 3.5 5.2 0.00 0.00 0.00 58 1006.7
20260505033819 44 299 2.6 5.2 0.00 0.00 0.00 58 1006.6
20260505033723 44 312 2.6 5.2 0.00 0.00 0.00 59 1006.6
20260505033612 44 303 3.5 5.2 0.00 0.00 0.00 59 1006.6
20260505033514 44 311 3.5 5.2 0.00 0.00 0.00 58 1006.6
20260505033419 44 315 2.6 7.0 0.00 0.00 0.00 58 1006.6
20260505033323 44 306 2.6 7.0 0.00 0.00 0.00 58 1006.6
20260505033226 44 298 3.5 7.0 0.00 0.00 0.00 58 1006.7
20260505033111 44 315 3.5 7.0 0.00 0.00 0.00 58 1006.7
20260505033014 44 344 3.5 7.0 0.00 0.00 0.00 59 1006.7
20260505032920 44 331 3.5 7.0 0.00 0.00 0.00 58 1006.6
20260505032806 44 302 3.5 7.0 0.00 0.00 0.00 58 1006.6
20260505032709 44 307 3.5 7.0 0.00 0.00 0.00 59 1006.6
20260505032634 44 312 3.5 7.0 0.00 0.00 0.00 59 1006.6
20260505032518 44 297 3.5 7.0 0.00 0.00 0.00 59 1006.6
20260505032422 44 300 2.6 7.0 0.00 0.00 0.00 59 1006.6
20260505032312 44 327 2.6 7.0 0.00 0.00 0.00 59 1006.6
20260505032216 44 306 2.6 7.0 0.00 0.00 0.00 57 1006.5
20260505032120 45 304 2.6 7.0 0.00 0.00 0.00 58 1006.6
20260505032006 45 309 3.5 7.0 0.00 0.00 0.00 58 1006.6
20260505031930 45 309 3.5 7.0 0.00 0.00 0.00 58 1006.5
20260505031805 45 313 2.6 7.0 0.00 0.00 0.00 56 1006.6
20260505031713 45 313 2.6 5.2 0.00 0.00 0.00 56 1006.6
20260505031619 45 315 3.5 5.2 0.00 0.00 0.00 55 1006.6
20260505031522 45 311 3.5 5.2 0.00 0.00 0.00 56 1006.5
20260505031426 45 302 2.6 5.2 0.00 0.00 0.00 54 1006.6
20260505031331 45 288 2.6 5.2 0.00 0.00 0.00 56 1006.6
20260505031213 45 291 2.6 5.2 0.00 0.00 0.00 54 1006.6
20260505031117 45 311 2.6 5.2 0.00 0.00 0.00 55 1006.6
20260505031005 45 319 3.5 5.2 0.00 0.00 0.00 54 1006.6
20260505030907 45 319 3.5 5.2 0.00 0.00 0.00 54 1006.6
20260505030812 45 320 3.5 5.2 0.00 0.00 0.00 55 1006.7
20260505030715 45 293 3.5 5.2 0.00 0.00 0.00 55 1006.7
20260505030618 45 305 3.5 7.8 0.00 0.00 0.00 55 1006.6
20260505030523 45 355 3.5 8.7 0.00 0.00 0.00 54 1006.6
20260505030412 45 315 3.5 9.6 0.00 0.00 0.00 54 1006.6
20260505030316 45 305 3.5 9.6 0.00 0.00 0.00 54 1006.6
20260505030239 46 313 2.6 9.6 0.00 0.00 0.00 54 1006.6
20260505030123 46 324 2.6 9.6 0.00 0.00 0.00 53 1006.6
20260505030027 46 340 2.6 9.6 0.00 0.00 0.00 53 1006.5
20260505025904 46 318 3.5 9.6 0.00 0.00 0.00 52 1006.5
20260505025829 46 307 4.3 9.6 0.00 0.00 0.00 52 1006.5
20260505025716 45 335 6.1 9.6 0.00 0.00 0.00 52 1006.4
20260505025621 45 319 5.2 9.6 0.00 0.00 0.00 53 1006.4
20260505025523 45 306 3.5 8.7 0.00 0.00 0.00 53 1006.4
20260505025428 46 323 3.5 5.2 0.00 0.00 0.00 53 1006.5
20260505025305 46 333 3.5 7.8 0.00 0.00 0.00 54 1006.4
20260505025209 46 329 2.6 7.8 0.00 0.00 0.00 53 1006.4
20260505025118 46 328 2.6 7.8 0.00 0.00 0.00 53 1006.4
20260505025042 46 328 2.6 8.7 0.00 0.00 0.00 54 1006.4
20260505024925 46 336 2.6 8.7 0.00 0.00 0.00 53 1006.3
20260505024850 46 317 3.5 8.7 0.00 0.00 0.00 53 1006.3
20260505024706 46 316 3.5 8.7 0.00 0.00 0.00 52 1006.3
20260505024611 46 319 4.3 8.7 0.00 0.00 0.00 52 1006.3
20260505024516 46 328 3.5 8.7 0.00 0.00 0.00 51 1006.2
20260505024444 46 342 2.6 8.7 0.00 0.00 0.00 52 1006.2
20260505024327 46 328 4.3 8.7 0.00 0.00 0.00 52 1006.2
20260505024231 46 350 5.2 8.7 0.00 0.00 0.00 51 1006.2
20260505024107 46 331 4.3 8.7 0.00 0.00 0.00 52 1006.2
20260505024032 46 342 3.5 8.7 0.00 0.00 0.00 52 1006.2
20260505023935 46 350 4.3 8.7 0.00 0.00 0.00 52 1006.2
20260505023818 46 329 5.2 8.7 0.00 0.00 0.00 52 1006.1
20260505023707 46 329 3.5 8.7 0.00 0.00 0.00 52 1006.1
20260505023611 46 351 3.5 8.7 0.00 0.00 0.00 52 1006.1
20260505023517 46 303 4.3 8.7 0.00 0.00 0.00 52 1006.2
20260505023422 46 341 4.3 8.7 0.00 0.00 0.00 52 1006.1
20260505023326 46 336 5.2 8.7 0.00 0.00 0.00 52 1006.1
20260505023210 46 337 5.2 8.7 0.00 0.00 0.00 52 1006.2
20260505023114 46 360 3.5 8.7 0.00 0.00 0.00 52 1006.2
20260505023022 46 349 3.5 8.7 0.00 0.00 0.00 52 1006.1
20260505022926 46 312 3.5 8.7 0.00 0.00 0.00 52 1006.1
20260505022804 46 315 4.3 8.7 0.00 0.00 0.00 53 1006.1
20260505022707 46 300 4.3 8.7 0.00 0.00 0.00 52 1006.2
20260505022632 46 355 3.5 8.7 0.00 0.00 0.00 53 1006.2
20260505022514 46 346 4.3 8.7 0.00 0.00 0.00 53 1006.2
20260505022421 46 312 5.2 8.7 0.00 0.00 0.00 52 1006.1
20260505022326 46 329 4.3 7.8 0.00 0.00 0.00 52 1006.1
20260505022207 46 27 3.5 7.8 0.00 0.00 0.00 52 1006.1
20260505022111 46 315 3.5 7.0 0.00 0.00 0.00 52 1006.0
20260505022033 46 346 3.5 7.0 0.00 0.00 0.00 51 1006.0
20260505021915 46 339 3.5 7.0 0.00 0.00 0.00 52 1006.0
20260505021820 46 302 3.5 7.0 0.00 0.00 0.00 51 1006.0
20260505021707 46 331 3.5 7.0 0.00 0.00 0.00 51 1006.0
20260505021631 46 325 3.5 7.0 0.00 0.00 0.00 51 1005.9
20260505021507 46 11 4.3 7.0 0.00 0.00 0.00 51 1005.9
20260505021409 46 36 3.5 5.2 0.00 0.00 0.00 51 1005.9
20260505021314 46 355 2.6 5.2 0.00 0.00 0.00 51 1005.9
20260505021217 46 323 3.5 5.2 0.00 0.00 0.00 50 1005.9
20260505021104 46 344 2.6 5.2 0.00 0.00 0.00 53 1005.9
20260505021029 46 350 2.6 5.2 0.00 0.00 0.00 51 1005.9
20260505020905 46 355 3.5 5.2 0.00 0.00 0.00 52 1005.9
20260505020809 46 340 3.5 6.1 0.00 0.00 0.00 52 1005.9
20260505020734 46 350 2.6 5.2 0.00 0.00 0.00 52 1005.9
20260505020617 46 325 2.6 5.2 0.00 0.00 0.00 51 1005.9
20260505020521 47 325 1.7 5.2 0.00 0.00 0.00 51 1005.8
20260505020427 47 342 2.6 5.2 0.00 0.00 0.00 51 1005.8
20260505020351 47 319 3.5 7.0 0.00 0.00 0.00 51 1005.8
20260505020207 47 355 3.5 9.6 0.00 0.00 0.00 49 1005.8
20260505020110 47 345 2.6 9.6 0.00 0.00 0.00 50 1005.8
20260505020013 47 347 2.6 9.6 0.00 0.00 0.00 49 1005.9
20260505015937 47 330 3.5 10.4 0.00 0.00 0.00 49 1005.8
20260505015818 47 303 3.5 10.4 0.00 0.00 0.00 50 1005.8
20260505015725 47 12 3.5 10.4 0.00 0.00 0.00 49 1005.8
20260505015648 47 351 3.5 10.4 0.00 0.00 0.00 50 1005.8
20260505015551 47 331 5.2 10.4 0.00 0.00 0.00 50 1005.8
20260505015407 47 321 6.1 11.3 0.00 0.00 0.00 50 1005.8
20260505015310 47 341 5.2 11.3 0.00 0.00 0.00 48 1005.8
20260505015214 47 346 6.1 11.3 0.00 0.00 0.00 47 1005.8
20260505015118 47 355 7.0 11.3 0.00 0.00 0.00 47 1005.8
20260505015006 47 355 7.0 11.3 0.00 0.00 0.00 47 1005.7
20260505014930 47 341 6.1 11.3 0.00 0.00 0.00 48 1005.7
20260505014807 47 5 5.2 11.3 0.00 0.00 0.00 48 1005.7
20260505014711 47 355 6.1 11.3 0.00 0.00 0.00 47 1005.7
20260505014615 47 360 7.0 11.3 0.00 0.00 0.00 47 1005.7
20260505014519 47 5 7.0 11.3 0.00 0.00 0.00 47 1005.6
20260505014405 47 26 7.0 10.4 0.00 0.00 0.00 47 1005.7
20260505014329 47 324 6.1 10.4 0.00 0.00 0.00 47 1005.7
20260505014206 48 355 5.2 10.4 0.00 0.00 0.00 48 1005.7
20260505014110 48 329 4.3 10.4 0.00 0.00 0.00 48 1005.7
20260505014014 48 33 5.2 13.9 0.00 0.00 0.00 48 1005.6
20260505013917 48 330 7.0 13.9 0.00 0.00 0.00 47 1005.7
20260505013825 48 348 7.8 13.9 0.00 0.00 0.00 47 1005.6
20260505013750 48 355 7.8 13.9 0.00 0.00 0.00 47 1005.6
20260505013604 48 342 5.2 13.9 0.00 0.00 0.00 47 1005.6
20260505013507 48 19 6.1 13.9 0.00 0.00 0.00 47 1005.6
20260505013411 48 355 7.8 13.9 0.00 0.00 0.00 47 1005.6
20260505013334 48 336 8.7 13.9 0.00 0.00 0.00 47 1005.5
20260505013236 48 329 8.7 13.9 0.00 0.00 0.00 47 1005.6
20260505013118 48 348 7.8 13.0 0.00 0.00 0.00 48 1005.5
20260505013005 48 338 7.0 13.0 0.00 0.00 0.00 48 1005.5
20260505012909 48 331 5.2 13.0 0.00 0.00 0.00 48 1005.6
20260505012811 48 5 6.1 14.8 0.00 0.00 0.00 48 1005.5
20260505012713 48 316 8.7 14.8 0.00 0.00 0.00 48 1005.5
20260505012616 48 346 8.7 14.8 0.00 0.00 0.00 47 1005.5
20260505012540 48 349 7.8 14.8 0.00 0.00 0.00 47 1005.5
20260505012405 48 312 7.8 15.6 0.00 0.00 0.00 48 1005.5
20260505012309 48 5 7.0 15.6 0.00 0.00 0.00 47 1005.4
20260505012213 48 347 7.8 15.6 0.00 0.00 0.00 47 1005.4
20260505012116 48 355 9.6 15.6 0.00 0.00 0.00 46 1005.4
20260505012039 48 355 8.7 15.6 0.00 0.00 0.00 47 1005.3
20260505011921 48 339 7.8 16.5 0.00 0.00 0.00 47 1005.4
20260505011808 48 316 8.7 16.5 0.00 0.00 0.00 47 1005.4
20260505011708 48 355 11.3 16.5 0.00 0.00 0.00 46 1005.3
20260505011613 48 360 11.3 16.5 0.00 0.00 0.00 46 1005.3
20260505011515 48 360 9.6 16.5 0.00 0.00 0.00 46 1005.4
20260505011438 48 355 7.8 16.5 0.00 0.00 0.00 47 1005.4
20260505011320 49 355 7.8 16.5 0.00 0.00 0.00 48 1005.3
20260505011205 49 326 8.7 17.4 0.00 0.00 0.00 47 1005.3
20260505011111 49 5 7.8 17.4 0.00 0.00 0.00 47 1005.3
20260505011014 49 360 6.1 17.4 0.00 0.00 0.00 49 1005.3
20260505010914 49 24 6.1 17.4 0.00 0.00 0.00 49 1005.3
20260505010817 49 315 7.0 17.4 0.00 0.00 0.00 47 1005.3
20260505010720 49 349 7.8 17.4 0.00 0.00 0.00 47 1005.2
20260505010624 49 351 9.6 17.4 0.00 0.00 0.00 47 1005.3
20260505010530 49 344 10.4 17.4 0.00 0.00 0.00 47 1005.2
20260505010406 49 346 11.3 17.4 0.00 0.00 0.00 48 1005.1
20260505010309 49 346 10.4 16.5 0.00 0.00 0.00 47 1005.2
20260505010233 49 20 11.3 20.0 0.00 0.00 0.00 47 1005.1
20260505010116 49 28 10.4 20.0 0.00 0.00 0.00 48 1005.2
20260505010018 49 325 8.7 20.0 0.00 0.00 0.00 48 1005.2
20260505005942 49 344 8.7 20.0 0.00 0.00 0.00 48 1005.0
20260505005807 49 312 10.4 20.0 0.00 0.00 0.00 48 1005.0
20260505005711 49 5 10.4 20.0 0.00 0.00 0.00 48 1005.1
20260505005612 49 360 10.4 20.0 0.00 0.00 0.00 48 1005.0
20260505005515 49 11 9.6 20.0 0.00 0.00 0.00 48 1005.0
20260505005418 49 360 10.4 20.0 0.00 0.00 0.00 48 1005.0
20260505005342 49 5 13.0 20.0 0.00 0.00 0.00 48 1005.0
20260505005224 49 350 13.0 20.0 0.00 0.00 0.00 48 1005.0
20260505005152 49 16 13.0 20.0 0.00 0.00 0.00 48 1005.0
20260505005006 49 342 12.2 20.0 0.00 0.00 0.00 48 1005.0
20260505004930 49 351 9.6 19.1 0.00 0.00 0.00 50 1004.9
20260505004813 49 360 9.6 19.1 0.00 0.00 0.00 49 1005.0
20260505004716 49 327 11.3 19.1 0.00 0.00 0.00 48 1005.0
20260505004619 49 342 10.4 16.5 0.00 0.00 0.00 49 1005.0
20260505004506 49 9 11.3 16.5 0.00 0.00 0.00 49 1005.0
20260505004409 49 338 9.6 16.5 0.00 0.00 0.00 49 1005.0
20260505004312 49 355 9.6 16.5 0.00 0.00 0.00 49 1004.9
20260505004235 49 17 11.3 16.5 0.00 0.00 0.00 48 1004.9
20260505004138 49 23 11.3 16.5 0.00 0.00 0.00 49 1004.8
20260505004020 49 32 10.4 15.6 0.00 0.00 0.00 50 1004.8
20260505003923 49 355 8.7 15.6 0.00 0.00 0.00 49 1004.9
20260505003812 49 344 9.6 21.7 0.00 0.00 0.00 48 1004.9
20260505003736 49 345 10.4 21.7 0.00 0.00 0.00 49 1004.9
20260505003618 49 17 10.4 21.7 0.00 0.00 0.00 49 1004.9
20260505003522 49 317 8.7 21.7 0.00 0.00 0.00 49 1004.9
20260505003406 49 5 10.4 21.7 0.00 0.00 0.00 48 1004.9
20260505003330 50 340 10.4 21.7 0.00 0.00 0.00 48 1004.9
20260505003207 50 12 9.6 21.7 0.00 0.00 0.00 48 1004.9
20260505003116 50 5 9.6 21.7 0.00 0.00 0.00 48 1004.9
20260505003020 50 334 10.4 21.7 0.00 0.00 0.00 48 1004.8
20260505002905 50 360 11.3 20.0 0.00 0.00 0.00 47 1004.8
20260505002828 50 350 11.3 20.0 0.00 0.00 0.00 47 1004.7
20260505002705 50 5 10.4 20.0 0.00 0.00 0.00 47 1004.7
20260505002610 50 5 13.0 20.0 0.00 0.00 0.00 47 1004.7
20260505002537 50 350 14.8 20.0 0.00 0.00 0.00 47 1004.6
20260505002440 50 17 13.0 20.0 0.00 0.00 0.00 47 1004.7
20260505002343 50 344 10.4 18.2 0.00 0.00 0.00 48 1004.6